GFSCGP_925_spd_027.txt.gz
Wind_Speed
1 2 6 9 6 3 2 1 1 1 1 3 7 5 14 14 12 11 11 12 14 15 15 16 18 21 21 22 22 23 23 23 22 22 18 18 19 20 20 20 20 20 21 19
2 5 5 2 2 5 3 1 0 2 4 4 2 4 5 13 15 15 13 13 15 15 12 15 19 21 24 25 25 24 26 27 28 26 24 21 23 21 21 21 20 20 20 19
4 4 5 5 2 5 4 3 3 2 2 3 3 2 5 8 11 9 12 12 14 16 16 14 20 25 26 26 27 26 25 27 28 29 27 21 22 19 17 18 19 21 21 20
5 1 4 4 4 4 3 8 2 4 2 2 1 3 4 7 10 12 15 15 18 18 16 15 21 26 29 29 27 28 29 33 32 32 31 32 24 18 17 21 22 24 23 22
5 6 4 3 6 7 5 4 2 3 3 1 1 1 3 1 10 17 19 17 17 18 18 19 23 26 26 26 28 30 29 31 30 33 32 30 26 24 22 25 26 25 24 22
4 1 5 5 2 5 6 2 6 3 2 1 2 3 3 4 10 10 16 17 18 18 18 19 24 24 26 26 26 30 28 27 27 32 33 34 35 31 25 29 29 27 25 24
1 3 1 3 2 1 3 3 2 1 1 3 2 2 6 7 6 9 11 15 18 17 18 18 19 26 27 28 28 27 27 27 29 33 35 37 39 34 33 34 36 35 32 31
6 3 6 4 5 6 3 5 4 3 3 2 1 4 4 4 5 9 9 10 10 15 16 19 21 25 27 28 28 27 28 28 28 33 36 39 37 35 32 32 35 37 35 32
5 4 2 2 2 2 4 3 1 6 2 1 2 4 9 2 3 4 5 5 5 10 13 16 19 25 26 25 29 32 28 27 27 33 34 36 37 36 35 35 37 37 34 32
7 2 1 0 3 5 2 7 3 1 4 3 2 4 3 5 5 3 6 7 6 4 6 10 13 20 21 23 22 22 26 30 31 27 29 33 35 37 35 35 37 35 33 30
4 3 1 2 4 8 3 2 3 4 2 3 3 4 6 6 4 5 6 6 8 6 7 5 9 14 17 17 21 25 27 25 24 24 33 34 35 33 33 34 34 34 32 33
6 5 4 6 1 1 3 4 4 3 4 1 1 5 3 9 6 6 8 3 3 5 6 5 6 6 9 14 15 17 18 20 21 28 30 30 29 28 31 31 35 34 35 36
7 1 2 2 1 2 3 4 4 4 3 6 4 5 1 5 6 6 9 5 4 4 3 3 2 4 5 7 8 12 15 19 22 23 22 20 19 19 20 22 28 29 34 33
10 4 6 10 6 5 5 6 6 5 3 4 6 6 8 8 7 10 6 5 5 3 2 2 2 3 5 8 10 10 11 13 14 15 16 16 16 16 16 19 22 28 32 32
5 7 6 5 5 6 6 5 10 10 7 7 8 9 9 7 6 5 4 3 6 7 8 7 5 4 2 2 3 4 5 7 8 11 11 12 13 13 14 18 24 27 27 27
1 5 5 3 3 6 5 7 10 10 2 8 7 8 10 3 2 0 3 7 11 11 11 12 12 12 11 7 4 3 3 4 5 5 5 6 7 9 14 17 18 18 21 22
4 7 4 4 2 3 5 7 10 5 5 5 8 11 5 5 5 6 8 9 10 9 10 11 10 11 11 12 11 8 4 1 0 1 2 3 6 8 10 12 13 16 19 17
6 4 2 3 2 5 3 2 3 11 5 9 5 5 5 3 6 7 6 12 10 8 8 9 11 13 14 13 15 14 12 10 8 7 5 5 7 8 10 12 15 17 18 13
3 5 3 5 5 3 2 5 7 7 14 10 13 6 6 12 9 5 4 6 10 9 9 12 13 14 15 16 15 17 18 16 15 13 13 12 14 16 18 19 19 15 10 8
4 3 4 3 5 9 5 4 5 4 12 8 11 11 18 11 7 6 8 8 10 12 12 13 14 15 17 16 17 22 20 20 19 17 16 16 17 17 16 12 10 5 4 7
3 2 6 3 3 6 6 4 5 6 14 7 13 15 17 10 1 11 12 10 12 13 14 14 16 19 18 17 20 25 23 23 19 19 17 15 12 9 6 3 1 5 7 9
7 7 4 3 2 8 8 6 10 7 2 6 10 14 12 10 13 14 13 12 13 15 15 16 22 22 20 20 24 24 20 15 14 13 13 12 11 10 8 6 5 6 7 9
4 6 6 9 7 2 11 4 7 4 4 6 12 12 14 16 11 14 13 13 13 16 19 20 24 24 20 18 18 19 14 14 14 14 13 11 10 9 9 8 8 8 9 9
3 3 3 3 5 7 7 3 3 5 5 6 9 16 17 14 17 16 15 13 15 18 20 21 23 22 19 17 17 16 15 14 14 14 13 11 11 9 9 8 9 9 11 13
3 8 6 3 5 2 9 9 5 5 5 10 10 10 15 20 17 17 15 15 19 20 20 20 21 20 19 18 18 17 15 13 14 12 10 10 9 10 10 10 10 10 10 11
5 6 5 6 10 6 5 11 9 10 9 12 18 14 13 18 19 18 15 20 22 21 21 21 20 21 18 18 17 15 14 13 11 10 9 10 10 10 10 11 10 10 9 9

GFSCGP_925_spd_033.txt.gz
Wind_Speed
15 13 14 18 15 16 10 8 12 10 14 8 8 14 5 14 10 11 11 13 13 13 17 17 20 25 23 26 27 26 25 25 24 21 23 21 21 21 18 16 17 15 16 15
13 14 16 17 8 8 11 12 13 5 4 5 9 11 15 13 12 14 13 15 14 14 16 20 23 24 28 27 26 27 27 25 24 23 22 20 20 22 20 17 17 17 17 16
16 8 11 7 12 13 13 16 3 7 4 10 11 12 10 10 12 13 13 15 15 17 18 19 23 26 26 28 30 29 28 27 26 24 21 20 19 20 20 17 17 18 18 19
16 12 9 12 16 15 15 12 5 4 8 5 10 1 12 14 14 15 15 14 15 18 18 19 23 27 29 29 28 28 28 28 28 26 23 24 23 23 20 21 19 19 21 20
17 16 14 15 15 12 8 10 7 12 12 7 8 8 6 9 12 16 17 17 17 17 19 21 23 30 31 31 31 30 29 29 28 27 27 25 24 22 21 21 19 23 20 20
19 15 17 16 14 7 6 6 9 13 12 9 10 13 7 10 12 11 19 19 20 19 20 20 27 29 29 30 31 31 31 30 29 29 29 28 25 26 23 22 20 20 20 18
22 15 14 11 10 12 11 12 10 8 9 10 6 5 9 9 4 3 2 9 21 20 20 20 21 23 28 31 30 30 32 32 31 31 30 31 29 27 25 19 19 19 18 18
18 20 22 15 19 15 18 17 12 5 9 9 4 7 11 4 6 0 6 8 9 17 21 21 22 25 28 30 32 32 32 32 32 33 35 31 29 27 22 21 19 21 22 23
19 22 23 19 18 17 12 16 21 19 6 6 10 8 5 10 6 6 5 3 7 10 11 19 21 28 29 30 30 31 32 31 31 33 26 26 24 24 23 20 22 24 31 32
16 16 14 13 10 11 12 5 13 10 12 11 14 13 4 8 8 5 6 4 1 3 3 7 13 20 27 28 28 29 31 30 29 26 26 27 25 23 23 21 23 26 23 20
20 11 16 13 16 18 10 12 9 8 13 10 10 10 2 4 3 4 5 3 2 2 3 4 5 10 15 19 23 25 26 27 26 24 23 21 20 22 24 22 20 19 17 18
26 13 14 17 17 21 17 17 18 10 13 12 10 11 5 5 8 1 6 6 2 1 1 4 6 7 10 14 17 19 20 22 21 19 20 20 20 21 23 21 17 19 19 20
20 18 12 18 15 10 12 16 15 12 13 6 10 9 6 4 6 8 8 7 7 4 4 6 6 8 10 12 13 15 15 16 17 19 17 15 13 14 15 15 18 16 18 18
18 17 21 16 17 15 18 18 18 16 10 12 15 15 12 10 11 11 9 11 7 6 5 7 7 8 11 10 10 11 10 9 9 9 9 10 10 11 12 12 10 11 15 17
15 21 17 24 20 20 22 24 22 20 18 18 17 18 16 13 8 8 8 4 5 6 7 6 8 8 10 11 10 12 11 11 10 9 8 9 7 7 7 7 8 9 11 9
16 15 20 22 22 21 19 18 20 22 23 21 21 21 16 14 7 5 7 5 7 7 7 7 8 9 9 11 13 13 13 12 12 12 11 9 8 7 6 6 6 7 7 8
14 12 13 17 20 19 19 17 19 19 21 17 18 20 16 17 12 10 11 8 8 9 11 11 11 11 13 15 15 15 14 13 13 13 12 11 10 10 9 9 9 8 8 10
8 12 8 10 4 14 10 16 22 22 20 19 19 18 16 12 10 6 4 10 10 12 13 13 12 15 16 17 17 16 15 15 14 14 13 12 12 12 11 11 10 9 9 10
11 8 6 9 11 13 18 13 12 15 17 17 17 16 15 8 3 5 6 10 13 13 13 15 17 17 17 17 17 17 17 16 16 15 14 14 14 15 14 14 12 11 9 8
12 9 8 7 15 18 12 16 13 14 14 13 14 13 8 6 8 10 14 15 15 15 17 18 18 17 17 16 17 17 17 16 16 16 16 16 15 15 14 13 11 9 8 7
5 5 11 12 9 9 11 13 12 13 12 5 4 5 8 10 13 9 18 16 19 19 19 19 18 16 17 17 17 18 18 17 17 17 16 15 14 13 12 9 7 6 5 4
7 8 6 10 12 14 7 9 14 14 12 6 7 8 9 7 10 18 19 19 18 17 20 19 18 18 17 17 18 18 18 17 16 15 14 13 11 10 9 8 6 5 3 2
9 9 6 8 6 8 14 16 16 16 10 7 10 9 9 15 17 19 19 19 18 20 20 19 19 19 17 17 17 18 17 16 16 14 13 12 10 8 6 5 4 3 3 2
8 8 7 9 9 13 9 15 13 11 12 10 8 9 12 18 19 20 19 18 17 21 21 21 21 19 18 17 16 17 16 16 15 14 12 10 8 7 5 5 4 4 4 3
7 7 10 17 19 17 11 11 16 12 9 9 8 10 15 17 20 20 20 19 17 21 22 22 21 19 19 18 17 16 16 15 15 13 11 9 7 6 5 6 6 5 5 4
10 14 9 9 12 10 13 11 14 14 15 12 12 12 15 18 20 20 18 19 22 22 24 22 21 21 20 18 17 15 14 13 13 12 9 8 7 5 4 3 5 3 2 5

GFSCGP_925_spd_036.txt.gz
Wind_Speed
17 12 15 18 18 19 16 8 16 7 4 6 17 22 15 8 11 13 13 12 11 12 22 26 26 29 27 26 28 28 27 27 29 27 30 25 26 24 25 25 25 19 21 24
17 18 18 18 18 18 16 12 18 9 12 8 11 17 23 22 19 14 13 13 12 14 18 22 28 28 33 32 29 30 30 29 29 26 23 23 24 24 25 23 22 19 27 23
20 18 19 16 19 15 12 16 14 9 6 11 12 12 22 20 17 16 14 16 13 15 19 18 25 30 31 35 34 32 33 35 35 32 29 28 26 27 27 27 24 22 22 20
20 21 15 10 13 13 15 15 5 12 10 8 5 9 8 14 14 14 14 15 17 18 18 20 21 26 33 34 36 34 35 35 34 33 28 27 23 21 23 25 25 22 22 21
20 19 18 14 16 17 14 2 13 12 13 13 7 9 9 12 12 16 16 14 15 17 18 21 22 30 32 33 36 37 34 35 34 35 33 28 27 27 28 22 22 23 21 22
22 19 19 16 16 17 13 9 10 12 11 9 13 10 5 6 8 8 17 12 15 16 18 19 29 31 30 33 32 34 33 33 34 34 35 30 27 25 23 24 23 26 26 24
22 24 18 15 18 17 10 9 8 10 9 7 11 9 11 10 5 7 11 12 16 16 15 16 20 24 31 34 36 33 34 32 33 33 33 37 30 28 26 23 31 27 25 26
17 17 23 15 19 18 15 16 8 7 4 7 12 7 7 14 12 4 7 21 25 18 18 17 17 27 33 37 38 38 37 36 35 34 33 33 39 30 21 26 24 27 30 33
18 22 20 17 17 18 15 16 16 18 5 3 5 21 9 8 12 7 6 5 3 6 19 20 18 22 29 35 39 40 37 36 33 33 35 38 31 32 25 34 32 26 30 31
19 13 21 21 18 18 17 12 11 11 10 7 12 16 7 3 8 8 4 7 3 4 1 3 15 19 25 30 38 43 45 40 36 33 34 34 33 35 29 29 33 22 27 25
20 14 11 17 21 18 13 12 7 16 10 6 5 5 10 5 8 5 7 5 4 5 6 3 3 7 11 26 30 34 32 31 28 31 34 35 40 40 25 31 25 22 17 17
25 11 13 17 14 17 17 16 17 10 9 6 3 8 10 14 7 5 3 3 6 5 6 6 4 2 5 6 6 22 27 25 26 27 24 27 30 24 25 26 21 18 15 17
20 18 10 17 16 19 19 18 13 15 10 12 4 7 9 9 8 6 5 7 10 7 6 7 6 5 5 4 4 5 10 14 14 16 17 15 20 21 21 18 18 14 13 14
8 13 21 15 14 9 14 20 17 18 9 11 8 9 14 12 4 8 9 9 11 12 8 6 10 7 9 10 8 6 7 5 8 10 10 19 16 13 9 9 10 13 15 16
6 16 18 21 20 20 17 20 20 20 21 17 13 20 20 19 15 4 8 5 6 4 6 5 8 9 11 11 11 13 11 10 11 12 20 21 15 10 10 11 10 8 8 9
5 12 15 23 21 19 22 22 20 21 22 20 17 17 15 15 10 8 7 9 6 7 6 7 5 12 9 12 15 16 15 13 13 13 16 14 14 15 15 15 14 12 11 10
11 10 17 19 19 13 21 21 19 16 18 17 17 16 14 13 12 10 14 10 10 7 6 7 8 9 12 15 19 17 17 17 17 17 15 15 15 15 15 14 14 14 13 12
12 12 11 7 2 20 10 14 16 16 16 15 16 16 12 12 12 2 7 4 9 11 9 8 8 12 17 19 19 20 19 19 20 18 17 16 16 17 16 16 15 14 14 12
12 10 7 9 13 13 18 13 14 13 18 18 20 17 15 14 14 6 2 2 10 11 11 11 15 16 18 20 21 21 20 19 19 19 18 17 18 18 18 17 16 15 15 13
18 14 8 5 15 18 5 11 12 17 13 11 14 13 10 7 4 3 9 9 13 14 16 17 18 19 19 19 21 21 20 19 18 19 18 19 19 19 19 18 18 17 15 14
2 8 11 10 6 7 7 13 16 17 8 7 10 11 9 4 1 6 12 11 13 15 19 21 20 18 19 21 21 19 19 18 19 20 20 19 21 20 17 14 14 14 12 10
7 3 4 7 8 12 6 11 17 9 6 5 8 5 2 3 9 12 14 14 15 16 20 22 19 19 19 20 21 20 19 21 20 20 19 18 17 15 14 14 13 12 12 12
3 8 3 5 2 5 7 15 9 6 5 7 5 7 5 10 10 14 15 16 15 16 19 20 19 19 19 19 20 20 21 21 20 20 18 17 15 14 13 12 9 12 11 9
12 9 6 2 9 16 2 10 14 11 9 11 7 7 5 10 13 14 14 14 14 17 18 20 20 18 18 19 19 21 20 20 19 18 17 16 15 13 12 11 9 11 10 8
6 15 16 11 12 12 26 11 8 9 12 3 4 3 6 12 15 15 14 14 13 17 19 20 18 16 16 17 19 18 17 18 18 17 16 14 13 13 12 13 12 7 7 5
9 12 7 6 5 2 12 12 9 8 13 10 4 6 7 12 14 15 13 13 15 16 19 18 17 17 16 17 16 15 16 17 17 16 15 13 12 11 12 11 10 7 5 6

GFSCGP_925_spd_039.txt.gz
Wind_Speed
5 4 8 10 13 17 13 12 6 4 6 7 12 8 12 10 5 18 14 15 15 16 21 25 28 29 28 31 31 35 35 37 33 32 30 32 29 30 30 24 20 25 25 25
7 15 14 15 18 17 16 10 7 6 1 4 11 11 10 8 6 11 15 16 17 15 18 24 26 28 29 32 31 34 36 37 33 32 31 28 29 26 25 23 25 23 26 27
13 12 18 19 18 16 15 7 5 2 5 10 4 3 5 9 10 8 11 13 16 22 19 19 25 29 33 33 34 36 36 33 34 33 31 30 26 26 29 28 28 28 29 28
12 19 20 17 18 12 9 6 9 5 1 4 5 3 10 14 14 14 12 14 13 20 20 19 25 29 34 35 36 35 35 34 36 36 32 31 29 24 28 32 33 33 30 29
14 7 12 17 12 6 11 7 1 2 3 2 6 0 4 15 12 15 14 18 14 21 22 22 25 35 36 38 39 37 38 38 38 39 37 34 33 32 35 34 35 35 33 32
15 14 15 13 9 8 9 4 3 3 1 4 6 2 6 12 19 17 19 19 18 18 22 23 34 36 37 38 37 39 39 40 43 43 45 36 34 36 36 34 31 37 37 36
16 22 14 12 7 7 6 2 1 3 2 6 4 3 7 8 9 8 22 20 21 20 22 22 23 27 35 38 42 40 40 40 42 41 42 44 41 40 40 36 36 31 31 33
13 14 19 12 14 8 10 7 5 4 2 4 3 3 6 8 8 9 17 22 16 16 18 23 25 32 35 41 42 43 42 40 41 43 44 45 41 39 41 36 29 29 27 30
11 18 6 16 9 12 10 6 8 4 3 2 3 6 8 10 12 8 11 9 10 11 12 17 23 33 37 40 44 45 44 43 40 39 40 42 46 42 38 41 30 33 35 32
6 7 18 15 10 10 9 3 2 0 4 4 4 4 4 9 10 6 7 13 14 15 15 13 15 31 37 42 45 46 45 46 49 46 43 45 48 48 44 32 37 32 29 30
19 15 12 11 13 15 4 7 3 4 5 4 3 5 7 10 5 6 9 7 8 9 11 10 9 15 31 39 40 40 37 26 32 27 38 38 46 51 47 41 34 19 25 32
18 4 13 22 11 11 9 13 10 5 5 4 3 10 5 7 5 4 6 8 8 8 8 7 8 7 7 19 34 28 38 45 50 39 35 40 29 18 17 21 24 20 34 27
11 15 14 12 12 9 19 13 10 5 5 7 5 5 7 5 8 7 6 6 7 8 8 8 6 2 1 4 9 31 38 45 34 35 38 31 28 29 31 24 24 28 24 19
14 14 15 20 5 5 6 7 8 9 5 5 7 5 6 7 2 4 4 0 3 7 9 8 8 7 5 3 12 21 28 29 30 35 26 27 24 23 24 24 24 23 20 18
6 10 22 18 14 12 14 21 19 17 14 10 7 7 9 10 6 15 8 5 1 6 7 8 8 7 9 12 17 23 20 21 30 27 24 27 26 24 23 22 19 16 14 14
11 12 6 7 19 20 15 16 21 16 6 14 11 12 14 17 10 9 9 8 8 10 11 8 9 9 9 15 19 21 21 22 27 30 29 26 24 22 19 18 15 14 12 10
11 10 7 15 3 6 12 18 14 9 15 11 11 13 15 13 12 17 12 17 12 10 9 9 12 11 14 21 26 24 22 25 28 28 27 27 27 25 22 19 18 15 14 12
4 16 4 5 4 8 16 5 13 10 13 12 6 4 5 9 10 13 18 19 11 10 9 10 9 10 18 26 29 26 26 27 27 26 26 27 27 26 25 23 22 20 17 15
6 4 5 3 11 5 12 7 12 10 12 7 6 5 6 7 2 2 6 7 10 10 8 8 18 23 26 27 28 29 27 26 26 25 25 25 26 27 26 23 21 19 19 18
10 2 2 5 8 16 3 15 8 1 7 4 4 8 7 6 3 5 4 8 9 10 17 18 24 27 28 27 29 28 26 26 23 25 25 26 26 24 24 23 23 21 20 19
3 3 3 11 4 7 6 9 1 5 5 5 6 6 2 3 7 5 8 6 10 14 19 24 24 22 26 27 28 24 24 21 25 27 28 27 28 28 27 26 25 24 21 19
8 8 5 4 4 6 14 6 12 6 6 9 7 3 6 8 7 11 12 13 13 14 17 22 20 22 27 27 28 22 21 23 26 27 29 30 27 24 22 22 19 17 18 19
4 6 7 8 5 8 13 7 11 15 11 11 3 8 8 9 8 11 11 12 13 14 17 21 22 23 25 27 30 24 22 27 28 27 26 24 21 19 20 21 18 20 20 21
1 4 3 5 5 9 11 8 16 15 12 17 7 8 10 9 12 9 11 10 11 10 13 20 22 18 20 27 28 30 29 28 26 25 23 20 21 23 22 24 24 24 20 19
3 7 4 2 3 13 13 5 11 13 16 21 18 4 6 9 11 15 10 10 10 12 15 21 18 17 20 27 28 28 28 28 28 26 25 24 23 24 23 19 15 15 13 11
5 5 4 5 10 9 5 7 12 11 11 13 9 9 5 7 8 7 8 9 12 11 20 20 21 23 22 26 25 25 26 29 29 26 22 20 21 21 19 19 17 13 10 7

GFSCGP_925_spd_042.txt.gz
Wind_Speed
3 4 8 11 10 8 5 7 10 14 10 6 8 5 11 9 7 8 9 9 9 12 11 17 20 22 23 26 28 33 31 32 37 31 30 25 30 30 31 31 32 23 19 22
3 14 10 9 8 8 9 10 17 10 4 5 6 8 3 9 8 11 13 13 12 10 10 15 19 21 26 32 30 31 32 36 35 32 30 27 36 34 33 38 35 26 24 26
12 8 14 10 11 10 13 10 13 9 3 3 7 5 5 6 7 5 13 15 14 17 15 14 21 25 26 30 32 31 33 38 37 32 30 24 30 33 31 35 32 30 29 29
8 12 12 8 11 11 11 13 10 7 3 4 5 5 5 7 6 9 9 16 17 18 17 15 21 26 29 33 31 30 32 34 36 35 29 26 26 25 30 29 37 36 33 31
9 7 12 16 19 11 14 15 9 5 4 2 5 2 7 4 8 9 10 16 20 22 22 21 22 31 35 33 35 34 34 32 32 32 31 30 28 29 28 32 36 35 35 35
9 5 6 8 10 10 10 3 3 3 2 1 5 5 4 5 12 9 10 18 19 22 23 23 34 31 32 32 33 33 35 36 34 34 37 37 36 32 29 33 37 38 41 38
12 20 15 7 7 13 5 5 2 3 2 6 5 3 7 4 8 16 18 19 20 22 21 21 21 25 30 34 38 38 39 41 39 39 40 43 42 40 36 39 39 34 36 40
12 6 17 12 17 6 8 9 6 6 3 5 3 5 6 7 4 8 13 18 20 17 20 22 23 31 35 39 40 40 40 40 42 45 45 44 43 39 40 40 39 40 42 40
6 8 8 15 11 8 6 5 8 5 2 2 4 6 7 8 8 8 10 19 21 18 20 22 22 31 35 38 43 46 43 45 47 50 47 46 44 45 39 43 43 42 44 44
5 6 6 16 5 12 13 5 2 1 6 4 3 4 5 8 9 2 2 12 15 15 19 19 19 29 35 39 44 44 46 48 52 44 39 40 42 39 42 39 43 39 40 34
9 10 8 5 5 15 2 4 1 5 5 6 2 5 8 11 7 4 5 12 16 12 14 16 16 29 35 37 37 42 43 42 39 40 41 44 40 41 35 33 28 27 21 13
5 7 12 23 17 10 7 11 11 6 4 3 5 9 6 7 9 5 7 9 8 10 11 15 13 22 28 31 31 34 38 38 43 42 31 23 22 28 24 21 28 32 19 16
6 4 4 7 9 5 8 5 10 5 4 9 7 5 5 5 6 8 4 5 7 8 6 7 9 12 18 26 31 33 36 42 42 29 30 28 29 32 36 35 35 31 33 35
7 5 5 11 7 5 5 11 10 11 6 5 7 7 5 5 7 5 4 6 9 9 9 11 8 10 15 19 22 31 35 42 33 36 34 36 36 35 36 33 37 32 38 38
4 6 12 17 14 18 19 9 9 14 7 9 7 9 10 10 11 11 10 7 6 8 8 8 8 7 9 16 15 20 31 33 31 34 34 40 35 30 28 27 29 29 29 30
2 2 10 10 13 16 20 20 16 15 10 7 8 8 8 14 9 7 9 10 10 9 10 11 9 8 9 16 20 22 26 25 24 26 23 24 24 26 29 27 26 28 26 24
5 3 5 6 16 13 11 27 19 6 7 6 8 8 8 9 10 12 14 14 14 11 10 10 12 11 14 19 25 24 26 25 26 25 24 25 28 28 29 29 27 26 23 20
6 6 4 7 14 8 18 4 16 16 9 7 5 6 10 16 16 10 11 15 12 12 10 11 11 8 17 25 24 28 27 26 30 27 27 30 30 28 30 30 29 26 22 19
4 5 3 4 7 16 5 12 3 7 14 8 8 11 9 9 2 6 9 14 17 13 10 9 17 19 23 28 30 31 27 26 26 24 26 28 31 31 31 29 27 25 23 21
7 3 4 3 4 6 9 7 12 2 8 9 15 12 9 5 2 5 8 8 6 6 9 13 20 23 25 26 31 29 24 24 23 26 27 28 29 29 28 27 25 23 23 23
3 0 7 4 4 8 11 23 8 11 7 15 4 9 9 6 7 6 8 4 6 11 15 21 21 22 25 30 30 24 25 21 27 28 28 27 26 26 25 26 26 27 27 26
8 8 5 5 4 10 2 11 5 6 4 13 15 5 4 7 5 6 7 8 10 12 12 18 19 19 26 31 31 23 21 27 29 29 28 27 26 26 27 27 27 27 28 28
4 7 5 9 7 4 1 1 6 5 5 4 10 10 4 7 6 9 8 10 11 14 13 18 20 19 21 26 31 23 23 29 29 28 27 27 25 25 26 28 26 24 24 25
4 5 4 3 8 11 4 3 8 6 5 6 8 9 10 4 6 7 7 9 10 9 11 19 21 16 16 22 24 29 28 28 28 26 25 24 23 20 18 19 19 20 21 23
5 7 6 5 6 3 10 7 7 8 3 3 8 6 6 2 5 5 2 7 9 10 14 19 18 17 17 24 26 28 30 30 29 27 22 21 21 21 21 20 17 17 13 17
4 3 4 6 8 4 7 9 7 4 3 1 5 8 7 6 7 4 4 2 8 9 17 17 18 21 19 23 25 27 28 30 30 26 25 25 27 25 25 25 23 18 13 10

GFSCGP_925_spd_045.txt.gz
Wind_Speed
4 4 9 12 8 3 3 2 4 7 9 4 10 8 7 7 7 8 8 8 8 8 6 18 14 16 17 20 21 22 27 31 29 27 31 26 31 24 22 24 24 22 18 15
1 16 6 8 5 5 4 5 8 11 12 8 6 8 7 8 13 12 11 10 10 6 7 11 17 19 19 24 23 23 22 29 31 30 29 23 28 27 24 23 27 22 18 15
7 5 14 11 6 6 7 6 8 8 6 1 3 5 4 5 4 7 10 10 10 13 11 11 16 20 24 25 28 25 26 26 27 28 28 28 26 28 28 30 29 28 24 19
6 16 5 5 10 8 6 9 12 8 1 5 6 4 4 6 9 9 13 14 13 14 11 10 13 19 26 30 31 30 31 30 32 30 31 29 25 24 26 29 33 34 32 28
9 6 9 10 16 7 9 4 9 11 6 3 3 3 7 5 7 12 14 13 16 15 16 16 16 24 26 28 32 31 32 35 37 35 32 31 28 28 31 31 33 36 41 35
10 3 6 9 7 10 8 4 5 1 3 3 6 6 5 5 7 6 11 14 15 15 16 15 18 19 21 24 28 32 31 32 36 38 41 37 33 31 30 35 36 35 37 39
4 10 3 1 2 2 4 3 3 3 1 6 5 2 7 7 8 9 11 16 15 16 14 14 14 16 22 26 30 31 32 34 36 38 37 40 39 41 35 35 37 37 39 39
10 5 11 6 14 6 7 9 5 6 3 5 2 5 5 10 9 7 10 14 12 15 15 17 18 22 25 29 32 33 34 36 40 39 38 37 38 36 40 36 32 35 40 40
5 6 4 6 9 11 5 5 7 3 3 2 4 6 7 7 9 8 10 8 12 15 16 19 18 26 27 29 34 38 38 39 38 43 40 39 37 39 35 34 31 35 40 41
4 3 5 5 5 6 8 4 2 2 4 5 3 4 5 4 9 5 8 9 10 14 16 18 17 25 31 34 37 35 38 39 42 36 37 35 34 36 37 32 33 38 40 39
6 5 4 5 4 6 2 3 3 3 4 8 8 6 8 10 8 7 8 9 9 10 14 15 18 28 35 33 32 36 35 38 35 38 37 34 36 33 32 36 39 41 36 34
1 1 5 17 14 5 1 5 6 7 6 4 4 11 5 8 8 6 9 10 7 9 13 13 15 23 27 32 33 37 40 38 42 38 38 40 38 38 39 43 48 41 40 35
3 3 4 7 6 2 6 7 8 2 2 16 7 9 4 7 5 6 7 9 7 9 9 10 8 12 21 29 31 34 37 42 42 38 39 38 40 42 47 50 42 41 38 36
6 2 3 2 5 8 7 15 8 12 7 3 13 7 5 7 8 7 7 9 10 6 8 9 11 14 20 26 32 33 36 41 37 38 38 39 40 46 44 42 38 37 39 41
2 3 2 5 6 10 15 16 18 16 12 13 7 11 10 10 10 10 11 6 7 8 8 7 7 10 10 18 24 29 35 33 32 33 35 40 39 35 34 34 37 34 33 36
3 5 1 4 6 2 13 20 18 19 14 8 6 7 8 11 6 6 8 9 9 9 10 11 9 8 9 17 24 27 29 32 35 34 34 30 32 33 33 32 33 30 31 31
5 4 2 5 2 6 8 5 13 17 17 9 12 9 7 7 9 11 13 10 12 13 10 11 11 15 12 21 28 26 27 26 30 28 26 30 29 28 27 26 26 27 29 28
6 6 3 4 1 3 9 3 14 18 20 15 8 5 9 8 8 10 11 12 12 10 10 10 10 10 20 22 22 21 20 23 25 22 22 23 24 24 24 26 26 26 24 22
5 5 2 2 2 7 9 6 2 8 24 23 15 9 9 8 5 7 9 11 16 15 14 13 18 13 22 27 25 24 22 23 23 22 23 24 26 27 28 29 29 26 24 21
5 3 3 3 2 6 18 5 11 12 20 5 7 9 12 6 9 6 11 8 11 11 6 7 10 16 24 26 30 26 21 23 20 23 25 26 25 26 25 23 23 22 21 20
3 1 7 4 4 8 8 1 5 1 7 16 9 10 9 5 11 10 8 10 6 5 6 14 18 18 20 29 29 21 21 18 23 25 25 24 23 23 22 22 21 22 22 23
7 8 4 4 4 8 5 3 7 4 22 15 12 8 8 8 10 7 10 8 7 8 9 15 13 15 22 26 27 19 18 22 24 24 23 22 21 21 23 24 23 24 26 26
4 6 5 9 7 6 5 3 7 7 8 17 9 12 7 9 8 7 6 5 6 8 8 14 16 17 18 21 25 22 21 28 28 26 24 23 22 22 22 25 25 26 25 25
4 4 4 2 7 11 12 11 8 8 6 19 15 10 7 6 7 3 5 6 6 5 6 11 16 14 14 19 19 25 27 27 29 29 26 25 26 24 22 22 23 25 23 21
6 5 6 8 10 6 12 10 8 11 10 11 13 9 7 7 4 2 2 6 7 6 9 12 12 15 16 21 22 23 27 30 29 30 29 28 27 26 24 20 16 17 16 20
2 2 3 4 5 4 8 7 9 8 8 8 10 7 6 5 4 5 4 4 7 8 13 15 16 19 19 22 23 23 25 29 33 29 26 26 28 27 28 30 28 22 17 14

GFSCGP_925_spd_048.txt.gz
Wind_Speed
5 5 12 10 7 4 5 2 3 5 3 3 8 10 15 8 8 9 8 9 9 10 7 14 12 12 13 15 17 24 21 28 35 27 25 31 30 29 34 28 23 23 25 24
3 16 7 8 7 6 3 3 6 9 3 4 7 11 7 7 8 10 10 9 10 7 9 14 15 15 17 19 20 22 26 25 30 29 24 22 29 27 31 25 21 25 25 22
8 3 12 8 6 7 5 6 5 8 5 4 2 7 5 3 4 6 9 7 7 12 13 14 16 18 18 20 22 23 24 28 30 30 23 22 28 25 25 23 23 24 25 20
7 5 4 4 10 8 8 9 8 5 2 3 3 5 7 5 7 7 10 10 11 12 10 13 18 20 24 24 24 23 24 29 31 29 29 28 27 31 30 31 30 27 26 26
8 6 11 5 5 8 7 7 9 5 5 1 2 1 7 5 6 9 10 14 13 13 15 15 17 25 25 24 29 31 29 28 31 35 36 36 28 29 31 31 32 31 28 28
8 3 8 11 7 11 4 4 4 1 3 3 7 7 5 5 8 6 6 10 13 12 14 13 18 22 24 29 30 33 34 34 35 37 38 40 33 32 35 36 35 37 36 34
1 5 2 3 5 2 3 4 1 2 1 5 4 5 8 7 11 10 10 10 11 12 12 13 16 17 24 30 33 34 35 33 35 38 40 42 39 40 37 36 34 33 40 42
9 5 11 5 7 5 5 7 5 6 4 4 3 5 6 9 9 7 7 9 5 10 13 15 17 21 26 31 35 35 35 33 36 39 41 40 38 37 41 36 34 36 38 39
5 5 1 4 7 11 5 4 6 3 1 2 4 6 8 6 8 7 10 9 10 9 12 15 15 22 26 30 36 40 34 33 36 39 37 37 37 38 34 34 34 34 34 33
3 1 2 0 5 3 7 5 3 2 4 5 4 3 5 3 9 9 9 10 10 7 8 10 12 19 25 30 33 36 40 42 36 35 37 35 36 33 33 28 30 34 36 37
4 3 4 2 3 5 3 3 0 4 5 4 2 5 8 11 8 7 9 9 8 8 10 11 11 20 24 21 28 35 35 35 37 39 39 36 33 37 37 36 40 35 39 43
3 3 4 10 7 5 1 2 6 4 5 4 2 6 4 9 7 8 9 10 7 8 10 10 12 14 18 23 25 30 30 34 39 37 35 37 39 36 33 34 40 43 38 33
1 2 2 1 1 6 5 3 6 4 3 7 4 4 3 5 8 8 8 8 8 7 7 7 8 12 16 23 26 29 31 37 31 33 33 37 39 39 40 41 46 40 35 39
2 3 4 2 2 3 3 6 5 1 3 4 9 5 8 8 9 10 9 9 9 8 7 7 7 11 15 22 26 28 30 35 32 33 35 35 39 43 43 42 42 40 35 40
1 4 3 3 5 4 8 9 6 5 6 7 8 12 9 9 12 14 12 7 7 9 8 9 10 11 11 15 22 27 30 28 32 33 34 41 40 39 40 41 40 36 36 39
4 1 3 4 9 10 11 7 8 6 5 8 11 14 9 14 7 8 10 8 9 10 10 9 9 8 11 18 24 27 28 30 33 33 37 34 33 35 38 37 34 34 36 35
3 3 2 2 2 3 7 7 12 7 5 5 5 10 15 12 11 9 12 9 11 11 11 10 10 11 12 20 27 27 30 28 33 32 31 30 31 32 33 32 30 33 33 33
2 3 2 1 0 3 6 3 5 8 9 8 7 6 13 20 14 10 8 8 9 12 13 11 9 8 19 23 26 28 26 31 31 27 26 29 32 29 27 29 28 30 31 31
6 4 2 3 3 7 10 6 6 8 17 5 8 7 10 16 11 14 8 9 13 14 12 11 16 20 21 25 26 25 22 22 24 24 24 25 25 24 24 23 24 22 22 20
6 3 3 3 2 5 4 3 4 3 9 3 5 6 8 13 8 10 10 7 11 11 9 8 13 15 19 22 25 23 17 18 16 20 21 23 23 23 24 23 22 21 21 21
5 1 8 3 3 7 6 6 1 2 6 7 4 5 7 6 7 16 23 24 8 7 8 8 13 13 17 21 25 19 19 15 20 21 21 19 17 18 19 21 21 23 25 24
6 6 4 4 4 8 6 2 6 7 4 4 7 5 6 13 19 21 18 12 8 7 3 1 2 5 13 20 22 16 16 21 22 21 21 19 17 17 19 23 23 23 24 26
3 6 6 8 7 4 5 5 5 3 7 5 5 8 11 14 18 18 11 7 4 5 5 10 11 12 13 13 19 20 18 23 24 23 21 20 20 21 21 24 25 24 22 24
3 5 4 2 5 12 9 7 4 6 12 11 8 7 13 16 15 15 9 6 5 6 5 15 15 10 11 17 21 24 24 24 25 25 24 23 24 23 21 20 18 20 21 21
5 5 4 10 7 8 11 5 12 13 10 12 8 5 12 13 15 10 7 7 5 7 9 16 14 14 14 17 21 23 26 26 27 27 25 25 25 24 23 20 16 16 14 17
0 2 3 4 4 2 7 8 14 10 14 17 10 7 7 8 11 5 6 7 8 8 13 19 17 21 20 20 20 20 21 25 30 27 24 23 25 24 23 26 28 20 12 8

GFSCGP_925_spd_051.txt.gz
Wind_Speed
5 7 14 17 14 5 6 5 5 3 5 3 4 12 13 8 12 12 12 13 13 13 10 12 10 11 11 12 15 22 29 24 34 29 30 31 30 33 37 38 32 33 31 31
4 15 11 8 8 9 6 6 7 5 3 7 6 13 11 7 8 14 15 14 14 12 12 14 14 12 13 13 15 21 25 30 31 30 25 27 28 32 33 35 33 31 31 31
16 4 14 11 8 10 10 12 6 8 5 3 3 5 7 3 6 7 12 15 14 17 15 16 18 18 16 16 18 18 25 31 32 30 27 25 29 26 27 34 30 30 30 31
11 6 10 9 15 12 12 10 7 6 3 4 2 5 7 6 8 7 10 15 15 17 17 16 19 21 22 20 17 18 22 29 33 33 28 28 30 27 29 33 36 31 28 30
9 8 12 9 11 13 10 8 12 9 7 3 3 5 4 4 7 11 9 13 16 18 20 20 20 26 24 24 23 21 23 25 28 35 36 30 27 27 25 30 36 32 28 31
8 2 8 11 5 16 5 5 3 3 2 7 9 7 5 8 11 5 6 7 11 17 19 19 23 24 23 24 25 23 25 25 27 30 35 32 27 28 26 30 35 33 35 32
5 7 2 3 8 5 7 6 2 4 5 8 2 8 12 8 12 12 13 12 3 12 16 18 19 21 26 27 28 28 30 29 29 31 33 35 33 29 30 29 31 30 27 32
10 5 12 5 5 6 13 10 5 7 5 3 4 6 5 9 13 11 9 9 5 9 13 19 22 26 29 30 29 28 32 32 32 32 33 34 35 33 32 34 32 31 29 27
6 7 4 6 5 9 6 8 5 0 1 2 3 4 9 6 9 7 9 6 10 6 13 17 18 26 29 31 35 35 34 34 34 36 34 34 34 35 34 35 34 37 39 38
4 3 2 4 4 1 8 8 3 1 5 8 3 3 6 3 11 12 8 9 11 5 8 13 16 24 29 31 30 32 35 37 36 35 35 36 36 35 35 32 37 40 40 41
3 2 2 3 4 9 4 7 2 2 3 4 3 4 8 12 7 7 8 8 8 8 7 12 14 21 25 26 29 32 33 32 33 36 36 35 37 37 37 40 47 52 48 48
3 3 4 6 1 2 2 1 3 7 6 1 0 5 4 8 8 8 11 11 10 9 7 9 12 18 23 26 28 32 33 34 36 35 34 37 36 37 40 42 40 35 36 42
5 2 3 2 2 4 6 3 2 2 1 5 4 4 4 8 10 11 12 15 11 7 6 6 10 14 19 25 28 32 33 38 34 33 34 34 35 38 42 42 41 38 41 38
2 2 2 3 3 3 1 3 3 1 2 1 5 8 8 14 13 15 16 15 17 13 7 6 8 13 17 23 27 29 30 31 32 33 35 35 39 44 42 39 37 37 39 36
2 2 2 2 4 5 5 7 7 5 8 6 6 11 11 14 15 15 15 16 15 14 13 9 9 11 13 19 24 27 27 29 33 33 34 41 38 35 35 34 34 34 35 35
8 2 2 3 9 8 7 8 10 13 14 13 14 12 15 15 13 12 16 16 15 14 14 12 9 9 10 17 23 24 25 29 32 32 36 31 31 32 33 34 34 33 33 31
4 2 3 2 2 1 6 8 14 8 9 6 10 12 3 8 13 14 13 16 15 12 13 13 12 10 10 19 25 25 28 25 31 32 30 29 29 30 30 29 29 31 30 27
2 2 2 2 1 5 2 4 4 7 12 14 14 12 13 15 14 20 16 15 17 14 12 12 11 11 18 21 21 26 18 24 27 27 27 27 28 28 24 24 26 25 24 26
10 3 2 2 4 8 10 6 4 6 10 3 3 7 10 12 13 12 6 9 14 17 16 14 18 17 20 18 25 20 17 21 23 26 26 25 26 23 21 21 22 24 24 23
9 4 4 3 3 5 3 1 1 2 6 4 4 8 11 12 10 10 18 18 19 18 16 15 21 16 19 18 15 17 20 20 22 20 18 18 18 20 19 18 20 19 18 17
6 3 10 4 4 7 10 8 2 2 2 2 3 10 8 7 8 16 21 21 18 16 20 23 16 13 14 11 12 14 13 13 14 19 19 19 20 21 19 19 17 18 18 20
8 8 5 6 5 8 3 4 4 2 6 8 9 8 9 11 11 15 19 19 19 17 18 18 13 4 5 6 13 13 12 19 24 25 23 21 20 20 20 22 20 20 25 27
5 6 5 8 6 0 3 2 6 10 10 10 13 15 11 11 10 14 19 19 16 16 12 14 7 5 6 9 14 18 17 24 27 28 25 23 21 22 21 24 25 26 25 25
3 4 4 2 5 13 10 2 6 10 11 14 15 15 9 10 10 14 17 15 12 12 12 12 8 9 12 12 11 17 22 24 27 28 28 27 27 28 26 24 23 23 21 20
5 6 5 8 9 10 3 9 12 13 12 14 15 12 12 15 19 15 10 12 11 12 12 12 12 14 18 17 19 16 17 24 26 26 25 26 27 28 29 26 19 20 15 13
3 4 4 5 3 4 7 12 11 11 13 13 13 13 11 16 14 13 10 12 14 13 13 17 17 17 17 21 24 21 15 17 24 25 22 20 23 24 25 28 32 26 18 15

GFSCGP_925_spd_054.txt.gz
Wind_Speed
18 14 20 25 22 20 11 12 14 7 4 7 13 15 12 6 11 13 12 13 14 13 11 13 13 12 13 12 13 21 25 28 27 28 26 25 28 37 35 38 22 18 23 24
10 20 21 17 18 20 18 15 13 6 6 10 14 14 14 4 9 11 13 14 15 14 13 14 15 16 16 16 16 21 24 31 31 29 27 23 29 34 35 38 25 19 23 23
21 9 18 14 16 19 21 19 14 12 3 11 10 15 17 12 8 8 12 13 15 17 17 16 16 18 19 20 20 19 24 31 32 32 27 22 24 25 28 31 29 26 23 25
16 23 5 19 22 19 19 17 16 13 9 11 7 14 15 11 15 12 12 13 14 17 17 17 17 20 21 21 21 21 22 30 31 34 30 32 30 27 29 35 29 28 25 26
12 12 20 17 18 18 16 7 13 14 13 13 14 9 13 9 14 15 14 13 15 16 19 19 19 22 21 21 23 23 23 25 31 34 32 34 27 26 26 27 27 27 26 27
15 4 13 19 13 12 4 8 7 6 7 12 15 11 11 12 13 10 9 9 10 13 17 18 21 21 21 22 23 24 25 26 30 35 32 35 32 28 26 30 29 33 33 28
13 14 5 9 16 13 15 12 7 9 9 10 5 10 16 6 10 11 9 8 7 10 14 18 20 20 23 25 26 26 28 28 30 33 36 35 35 34 34 35 35 32 30 33
14 9 15 13 14 9 21 17 6 6 9 9 8 8 11 7 7 11 9 9 4 10 13 17 21 22 26 28 29 29 30 30 32 34 36 37 39 38 35 35 37 35 36 35
12 13 10 14 9 13 13 19 16 10 2 4 7 5 10 9 8 6 9 7 8 10 12 15 19 26 28 30 31 32 31 31 32 35 35 37 38 38 39 37 36 36 37 37
6 6 9 16 17 17 11 11 8 10 10 13 10 9 6 3 7 8 7 7 5 6 9 12 16 23 28 29 29 29 30 32 33 34 36 37 40 41 38 37 38 39 38 39
8 5 6 10 14 17 14 12 8 6 10 8 8 5 4 6 11 12 11 3 6 9 7 8 14 21 26 26 29 31 32 32 33 35 36 36 38 40 40 39 40 41 40 39
6 3 7 10 4 5 12 17 18 10 11 6 5 6 5 6 8 11 9 11 13 12 10 6 11 16 23 28 29 32 33 35 36 35 35 36 35 36 38 40 41 39 40 38
5 7 9 10 6 5 4 3 4 3 2 10 8 3 2 12 12 12 14 13 13 13 10 5 6 12 17 25 28 31 33 37 35 35 36 36 37 38 40 42 41 39 37 37
8 3 6 10 3 2 7 5 3 5 6 8 10 9 7 12 15 15 15 16 16 15 15 10 7 10 15 21 27 29 32 33 34 35 35 37 38 42 42 37 36 37 37 35
2 3 2 1 1 1 4 7 7 6 6 6 8 9 8 9 12 15 14 17 19 19 17 14 11 10 12 18 24 27 29 30 32 34 35 39 39 37 35 35 35 34 34 35
6 4 4 5 5 6 8 9 9 10 11 11 15 17 12 11 11 13 16 16 17 19 20 18 15 12 12 17 22 24 27 31 31 34 38 35 34 34 36 35 33 32 33 34
4 3 5 9 3 5 8 15 16 13 12 9 11 8 11 12 13 16 19 18 19 21 21 21 20 16 11 15 21 24 27 26 31 33 32 33 32 33 33 31 32 34 33 31
5 5 3 3 3 7 1 3 0 6 9 8 8 8 7 9 10 13 17 15 16 19 22 21 19 19 19 16 16 21 22 26 29 30 30 29 31 31 29 28 29 28 28 29
12 6 3 4 11 9 12 6 8 7 4 0 3 6 9 9 11 9 11 14 18 19 20 21 28 27 29 23 15 15 19 24 27 29 31 29 29 27 27 27 25 24 23 19
13 12 7 5 7 6 4 5 1 1 3 7 6 8 11 12 8 8 15 16 17 19 24 26 31 31 28 26 19 16 18 22 26 28 27 25 26 26 25 24 21 20 19 20
10 11 14 11 7 3 9 5 2 5 4 9 12 13 13 9 10 12 14 18 16 19 26 32 30 27 25 22 18 18 16 20 22 20 19 19 20 20 19 18 19 21 20 19
10 9 8 11 6 7 5 3 4 7 8 13 15 15 15 14 11 11 13 17 19 22 25 29 27 25 20 17 15 14 10 3 9 15 17 18 19 22 22 25 23 22 23 22
7 7 6 7 7 3 2 3 9 9 9 12 13 16 16 13 8 9 12 14 17 21 24 28 26 22 19 18 12 3 3 8 14 19 21 24 24 22 20 20 20 22 27 20
8 8 7 5 8 10 6 4 6 8 8 10 11 13 14 11 10 10 8 8 11 15 18 24 22 19 18 18 19 14 10 9 18 23 22 25 28 25 24 24 21 20 21 21
9 7 10 12 13 11 10 3 8 9 9 10 11 11 10 13 13 12 10 10 12 13 20 21 19 17 20 19 17 20 18 17 23 24 22 24 28 30 30 29 24 24 17 17
10 11 8 8 5 0 5 7 7 9 9 10 11 12 10 10 12 12 8 10 13 13 15 17 18 17 19 18 20 22 21 20 21 23 22 22 25 28 26 30 36 34 25 24

GFSCGP_925_spd_057.txt.gz
Wind_Speed
17 15 21 25 24 22 20 18 15 13 5 8 14 16 14 16 13 13 13 13 12 13 11 14 14 12 14 15 16 18 20 22 25 26 26 27 27 29 30 23 24 25 23 22
15 22 21 22 24 23 24 24 15 14 2 7 14 16 18 14 14 13 13 14 13 12 13 13 17 16 16 17 17 21 22 27 26 26 26 29 28 25 30 26 23 25 17 18
23 19 20 22 21 22 21 22 18 17 7 9 15 18 19 14 16 11 11 12 11 13 15 15 16 19 17 20 21 21 26 29 24 26 23 25 24 25 20 25 26 23 18 21
19 23 10 20 24 18 21 18 19 16 15 13 12 15 17 19 19 15 15 14 13 13 15 16 17 19 21 20 20 21 25 29 26 30 26 29 27 28 30 32 31 30 19 18
19 10 18 23 19 20 21 15 15 16 17 15 17 9 12 13 13 15 15 16 15 13 15 17 19 22 22 22 23 23 24 28 28 29 31 27 27 31 32 28 30 31 25 29
18 15 14 14 19 18 16 11 11 13 14 15 18 15 11 12 14 10 11 11 13 13 14 16 20 22 22 22 24 24 26 28 30 30 32 32 27 28 28 31 31 31 30 31
20 21 14 13 19 18 18 14 9 11 12 14 14 13 14 4 4 6 5 7 12 10 12 14 18 18 23 25 26 26 27 28 31 33 33 34 33 33 32 34 37 37 27 27
18 14 22 12 15 18 20 18 9 14 11 14 19 8 11 7 2 4 9 10 1 7 9 13 18 17 24 27 29 29 30 28 31 34 34 34 34 33 34 35 35 36 36 35
12 21 10 14 12 15 17 21 21 18 10 7 7 10 12 3 7 6 6 6 8 9 10 11 15 20 25 28 30 30 30 29 31 32 33 33 34 33 34 33 35 38 38 36
13 10 15 14 14 19 22 12 18 11 12 12 10 11 8 9 10 5 3 8 4 2 9 12 12 15 26 28 29 30 29 31 31 32 33 34 36 36 34 34 35 36 37 37
14 11 9 11 18 19 15 18 13 15 14 9 12 9 5 10 11 6 6 7 11 9 6 7 7 13 23 26 29 30 30 30 31 33 33 35 37 37 38 37 38 37 36 40
15 6 11 18 20 20 18 21 20 10 9 12 8 2 8 8 7 6 6 2 5 5 4 5 3 7 15 23 26 29 30 32 32 32 33 35 35 38 38 41 39 40 38 37
13 8 9 15 11 9 14 19 20 20 14 12 9 6 6 5 2 1 7 10 8 9 11 9 1 5 10 18 25 28 30 33 33 32 33 33 35 36 39 42 42 38 39 38
11 11 14 12 12 13 15 7 10 10 10 13 14 13 8 3 10 10 9 12 14 12 13 12 12 5 9 16 23 28 30 31 31 33 33 35 37 40 40 38 38 39 39 38
5 6 11 9 5 5 6 14 11 12 12 10 12 10 8 6 8 11 11 12 14 14 15 16 17 14 13 13 20 25 29 31 33 34 36 39 40 38 36 36 37 37 37 39
7 3 9 8 6 6 7 9 11 13 12 12 14 14 13 12 5 8 10 13 15 16 16 17 18 20 17 21 15 21 26 29 31 33 35 36 33 35 37 36 36 35 36 36
8 7 4 4 7 8 8 14 14 13 14 13 13 9 9 6 6 9 13 14 14 14 18 18 18 16 19 23 22 16 22 25 29 32 35 34 34 35 37 36 35 37 37 34
12 10 10 5 5 4 6 5 3 12 13 11 7 4 4 5 5 8 11 9 13 14 17 18 16 18 23 26 27 26 21 24 28 32 32 33 33 34 33 33 36 35 35 35
15 11 5 5 7 10 5 3 9 7 7 3 2 3 3 6 7 8 13 11 13 14 14 17 25 26 25 24 26 28 27 22 27 30 31 33 32 32 32 33 34 33 31 29
16 12 9 5 11 11 5 3 2 3 7 11 5 4 6 9 6 6 13 12 14 16 18 20 25 25 25 26 28 30 26 24 25 27 30 30 30 31 30 29 27 26 26 24
14 12 14 11 8 6 8 9 0 11 5 9 6 7 10 8 9 10 10 11 12 16 21 23 22 22 25 27 28 27 27 26 27 26 25 25 27 27 27 25 24 19 18 19
13 10 9 13 10 13 8 3 7 8 4 8 7 9 9 10 11 8 9 12 13 16 21 23 21 21 22 26 28 28 28 21 16 9 2 8 6 7 15 22 21 20 24 25
9 10 8 11 9 3 3 7 8 7 7 8 9 10 10 12 14 12 10 13 14 15 19 23 20 19 19 26 27 26 29 21 12 5 7 11 14 14 14 20 22 23 22 22
9 8 4 1 7 9 5 8 8 9 9 10 11 12 12 12 12 12 12 12 13 17 19 23 22 18 20 24 26 28 25 15 7 11 14 18 24 25 24 23 19 18 17 18
7 3 9 8 9 7 7 8 8 9 10 12 13 12 13 13 12 12 11 13 13 17 20 21 20 19 20 23 26 29 27 13 12 17 19 24 27 29 29 32 24 26 21 21
7 6 5 4 9 8 8 9 10 11 13 13 14 14 13 12 12 13 11 13 14 15 19 20 21 22 24 26 25 26 26 19 13 19 19 20 30 27 25 33 40 44 41 36

GFSCGP_925_spd_060.txt.gz
Wind_Speed
13 13 17 21 18 20 21 22 21 16 17 15 17 15 16 15 14 13 13 12 10 13 13 20 16 14 24 19 17 17 16 17 16 19 20 24 23 26 34 35 34 31 28 25
13 20 19 18 18 21 24 23 22 22 15 3 9 13 15 15 14 14 11 13 11 12 14 15 19 16 18 23 21 19 19 21 21 25 19 18 31 28 32 27 27 25 29 29
18 14 16 18 18 20 23 23 18 22 18 14 6 16 19 18 17 14 12 8 12 13 16 17 16 18 18 22 23 23 22 25 23 25 24 23 25 29 28 23 29 26 28 29
12 20 14 19 23 20 22 22 22 20 17 14 14 12 14 16 16 14 13 10 9 8 16 19 17 19 20 22 24 26 24 27 24 27 25 29 24 26 30 28 32 29 30 32
4 9 15 23 19 23 23 18 16 15 16 16 19 12 12 13 12 19 16 16 14 13 12 19 19 22 23 21 27 27 26 27 27 28 28 28 26 27 32 23 27 30 34 29
18 12 21 20 17 22 20 16 17 14 13 14 17 16 12 13 13 11 8 8 15 14 11 15 22 25 25 24 27 29 29 28 29 31 28 29 29 29 30 26 28 27 26 31
17 20 21 17 18 17 16 14 9 7 10 10 16 14 11 16 9 4 3 2 5 13 11 13 19 17 23 27 28 27 30 28 30 33 32 33 29 31 32 34 33 33 29 27
5 11 21 15 18 15 18 15 7 8 7 13 19 10 14 18 14 5 4 3 6 9 8 10 16 17 22 27 29 29 28 28 31 33 34 32 33 30 30 35 36 36 34 31
3 8 10 16 16 15 14 14 17 15 7 5 9 18 15 6 7 5 6 7 4 7 8 7 10 16 23 27 29 30 30 30 32 34 33 34 34 34 33 33 36 37 37 32
6 6 15 15 17 17 17 15 10 5 5 6 7 5 8 9 8 9 6 7 5 4 6 10 9 14 23 27 29 29 29 29 33 34 34 34 36 36 34 35 36 37 38 39
14 11 6 14 12 16 13 15 11 13 10 5 2 4 12 12 11 7 11 12 10 8 6 4 4 13 25 28 29 31 29 29 30 35 35 35 36 36 36 38 38 40 40 40
12 6 10 18 18 14 16 14 18 7 9 12 5 1 15 6 8 8 9 9 9 6 8 6 4 3 5 21 25 29 29 27 29 32 35 37 36 36 37 39 38 39 40 39
10 6 9 9 8 13 17 19 12 14 8 6 5 5 9 11 10 6 6 8 12 13 12 12 11 3 4 11 18 23 29 30 27 29 34 35 38 40 42 43 41 40 40 39
5 8 10 9 4 6 7 16 20 16 6 5 8 4 10 13 8 5 7 10 11 13 13 15 16 17 18 2 14 18 22 28 30 28 30 35 38 41 44 41 40 42 42 43
3 5 12 15 17 16 12 15 13 9 13 9 12 13 7 7 16 5 6 9 9 9 13 13 14 14 15 20 21 10 21 26 30 31 30 35 35 36 35 38 41 41 42 41
5 3 12 11 9 9 9 10 7 17 15 5 9 7 11 17 9 9 9 9 9 9 13 11 12 14 16 22 24 27 26 21 27 32 34 33 32 33 37 37 37 36 41 42
2 3 4 3 8 9 8 11 14 16 8 5 9 5 11 5 6 8 8 9 13 12 12 13 13 14 16 21 26 26 29 29 19 26 32 32 32 34 37 37 35 37 39 38
13 9 3 4 6 5 4 2 8 12 7 11 12 4 2 8 9 7 13 13 11 11 12 11 11 15 19 22 27 32 31 31 28 23 27 30 33 34 36 34 37 39 39 38
15 12 4 4 5 8 10 4 2 3 6 11 3 6 8 8 4 9 13 10 10 12 12 14 18 19 21 23 26 27 29 29 30 31 25 26 32 34 34 33 37 37 34 35
17 14 10 7 4 3 7 3 2 1 2 10 11 9 9 8 3 6 3 7 10 11 19 21 22 19 20 23 26 24 24 27 26 33 33 37 27 33 33 34 33 33 32 30
15 12 13 11 8 6 6 3 3 6 5 12 13 12 10 7 7 9 7 9 10 16 20 25 24 22 22 24 25 23 23 22 31 36 34 33 30 20 32 32 31 30 26 27
13 10 8 10 9 12 3 4 5 10 13 10 9 8 9 10 12 12 15 15 16 16 20 23 21 22 23 26 25 24 23 27 27 29 28 25 24 19 4 18 17 19 21 22
3 9 7 9 8 5 6 14 12 12 12 7 9 11 10 10 10 12 12 15 15 19 21 23 22 22 23 25 25 25 25 25 22 19 22 21 16 12 10 11 18 22 23 22
4 14 10 2 8 8 12 9 14 11 12 10 11 11 11 9 11 11 11 13 13 18 19 19 19 19 21 23 22 22 24 20 16 20 21 23 24 22 19 19 18 18 21 20
3 4 4 7 3 9 15 6 14 15 13 12 12 13 11 10 10 11 12 12 13 16 18 18 18 18 20 22 22 23 22 17 16 23 22 24 24 26 28 31 24 30 25 20
3 3 2 4 7 12 9 13 14 13 12 10 12 11 12 12 12 11 10 12 13 15 16 17 19 21 22 22 24 25 25 20 18 25 22 25 24 26 24 28 40 45 48 45

GFSCGP_925_spd_063.txt.gz
Wind_Speed
6 4 6 6 9 12 14 14 16 20 19 12 12 22 15 11 6 10 10 9 12 16 13 23 27 32 30 23 21 19 18 20 21 21 21 20 22 22 34 38 40 43 37 26
4 10 9 9 13 16 17 17 19 19 16 9 11 9 6 6 7 12 15 11 10 14 15 15 24 26 31 29 24 22 20 20 20 20 21 20 25 27 34 35 42 37 26 26
10 11 10 11 20 17 17 17 15 17 19 18 15 8 5 8 9 7 10 17 12 19 19 17 17 25 28 30 28 25 23 20 19 22 21 22 22 25 22 32 32 35 28 25
7 16 14 15 17 13 17 13 17 18 17 12 3 5 7 8 16 16 10 11 15 19 19 19 17 20 27 29 30 25 23 23 22 23 25 25 24 23 23 29 23 30 32 32
4 1 8 16 16 12 14 10 13 18 23 9 11 4 6 8 7 19 12 13 13 22 23 20 19 24 28 34 32 26 25 27 25 27 29 25 24 22 27 27 25 26 31 34
11 8 6 14 13 16 13 13 17 19 9 10 9 4 5 8 11 5 13 14 14 15 21 20 22 26 25 33 33 29 27 26 26 28 29 28 27 26 23 27 28 25 30 32
13 16 11 10 12 20 14 12 4 5 6 5 7 8 12 11 13 9 6 11 13 13 21 19 19 16 23 28 31 32 30 25 27 28 29 34 29 29 31 30 31 27 28 28
6 4 13 14 14 9 7 15 5 3 2 4 13 6 7 16 19 11 3 6 11 13 20 20 20 18 26 28 31 31 31 27 27 29 29 32 31 32 31 34 32 32 29 30
2 4 5 8 7 8 8 16 11 8 8 4 3 5 13 10 7 8 5 8 11 10 17 21 19 20 27 29 33 35 32 31 28 29 30 29 29 31 31 33 34 34 33 33
4 4 6 11 14 14 13 9 5 1 3 3 4 5 4 8 5 7 6 10 9 6 7 17 18 17 28 33 36 34 37 34 34 28 30 30 32 30 31 33 35 35 35 36
3 5 6 6 5 15 7 8 3 3 6 2 0 3 4 8 7 10 11 9 9 9 8 7 13 22 31 31 31 32 32 32 34 37 31 29 32 32 32 33 36 39 38 40
4 4 5 14 16 12 10 13 10 2 2 3 2 4 7 6 7 10 13 13 14 17 16 17 19 19 8 26 26 31 31 32 35 39 37 35 29 32 33 36 35 36 39 39
4 4 3 7 5 5 2 5 12 14 6 4 3 3 12 17 17 9 12 13 13 17 18 17 17 17 18 19 6 26 29 30 30 36 38 37 36 36 36 38 36 38 38 41
4 1 5 4 9 1 4 9 11 13 5 5 7 4 2 12 11 13 11 11 15 14 15 15 14 14 17 20 21 16 8 20 30 31 36 36 38 40 40 37 35 37 39 38
3 3 4 11 14 6 9 13 13 9 11 8 4 12 9 8 15 12 8 14 15 15 17 17 15 13 16 20 20 20 17 21 26 26 32 36 41 41 41 41 42 37 40 40
2 3 5 4 9 12 7 17 14 10 6 15 5 8 10 6 11 15 9 15 13 15 14 16 17 17 16 21 22 22 22 26 24 21 32 28 33 36 40 40 40 41 42 43
1 2 3 3 11 12 6 3 7 4 5 6 8 10 20 16 12 6 13 14 14 14 16 15 14 13 20 24 26 26 26 23 21 20 20 23 30 32 38 39 38 41 43 41
5 5 2 3 5 3 7 17 12 14 16 20 12 11 4 16 14 12 11 14 15 17 15 13 11 17 21 26 31 33 31 27 24 22 24 26 28 18 30 34 38 40 40 41
10 5 2 2 2 9 9 9 4 8 4 8 11 12 14 14 15 9 11 14 17 15 13 16 20 20 22 26 26 26 27 29 28 29 28 27 23 23 28 24 35 41 40 38
12 6 4 2 4 4 3 11 11 3 5 14 17 15 13 12 10 6 17 18 17 19 20 20 20 19 20 22 23 23 24 25 28 31 32 30 26 24 26 29 32 39 39 40
8 7 13 7 4 5 6 9 8 3 2 8 13 14 14 14 8 11 17 18 21 22 24 22 20 19 19 20 18 17 19 24 28 28 28 27 26 25 25 30 31 22 30 32
5 7 5 4 4 8 5 5 2 7 5 10 11 12 13 12 14 16 16 17 18 16 24 27 22 22 23 24 21 19 20 22 21 24 25 25 26 23 23 25 24 12 2 20
2 4 2 8 6 4 8 10 9 8 11 10 11 12 13 15 16 15 14 16 15 20 20 21 19 19 22 26 26 24 26 27 22 20 20 22 24 26 24 25 25 16 8 10
2 4 3 4 9 8 16 16 14 13 14 14 14 13 14 13 14 14 13 12 12 17 17 18 19 20 22 25 25 24 25 24 20 19 20 22 24 28 32 28 28 24 19 17
1 3 3 3 8 15 16 12 15 16 15 16 15 14 12 14 13 12 10 11 13 15 15 17 18 19 21 24 26 27 27 24 21 21 21 21 22 24 32 42 35 31 35 25
3 3 2 3 7 11 11 11 15 12 8 12 13 14 15 12 12 12 10 14 14 14 14 17 18 18 20 22 24 27 25 23 19 20 21 22 22 21 24 28 38 47 45 46

GFSCGP_925_spd_066.txt.gz
Wind_Speed
1 3 11 10 7 6 7 9 9 13 8 9 15 18 10 15 9 10 9 11 16 18 11 18 25 31 32 32 30 28 27 26 27 27 25 22 25 29 33 36 33 41 35 37
1 9 9 9 9 10 9 9 14 16 10 6 16 10 14 14 12 14 13 9 15 10 10 13 21 26 29 31 32 29 28 27 28 27 24 18 22 26 30 37 33 37 40 37
5 3 6 12 12 11 8 10 12 14 15 13 11 9 15 11 6 6 9 9 13 19 18 15 16 25 27 28 33 33 31 29 28 27 23 17 20 17 23 28 32 36 36 37
5 3 7 8 10 7 9 12 16 19 11 5 3 6 19 12 9 5 7 9 11 17 20 18 17 20 26 27 33 33 30 29 26 25 23 24 20 15 18 25 31 35 36 28
4 2 5 9 14 10 12 7 5 5 5 3 6 6 13 6 8 11 8 10 14 21 22 20 20 26 27 30 31 34 31 29 27 28 27 24 18 19 20 23 28 31 35 27
7 3 4 8 11 8 10 7 5 5 4 4 9 6 8 5 11 5 7 5 13 18 21 20 18 22 24 27 29 33 33 31 30 29 30 28 24 19 22 22 25 32 32 30
3 14 6 4 4 9 8 2 1 3 3 5 5 7 13 13 11 11 11 14 14 20 19 17 17 16 23 27 27 29 32 29 33 30 30 27 28 28 27 28 26 31 30 29
4 6 11 9 9 9 11 6 4 5 1 2 12 6 5 10 13 11 12 9 12 18 19 19 19 17 24 28 28 28 29 28 32 32 31 30 31 32 29 31 29 30 31 33
2 4 2 11 7 9 5 6 3 3 2 1 4 5 7 11 12 8 9 5 14 16 18 19 17 16 23 28 32 32 31 29 32 31 31 33 31 30 30 33 31 32 32 29
3 4 5 6 6 5 7 4 3 3 3 4 4 2 2 16 13 10 8 7 4 12 16 15 15 15 23 27 27 28 32 31 32 32 30 30 33 32 32 33 34 33 36 34
3 3 6 4 8 11 4 4 3 1 2 1 1 2 12 13 15 15 17 17 15 12 8 6 5 5 6 13 22 26 27 26 28 32 30 30 30 29 30 32 37 38 37 38
1 1 4 6 9 4 8 8 7 2 5 4 2 3 9 9 13 13 15 14 16 19 18 16 12 13 14 12 10 8 10 18 27 30 30 31 31 32 30 31 31 36 36 39
2 2 3 6 3 3 4 9 13 5 2 5 2 2 1 12 14 16 9 11 15 17 18 18 19 16 18 21 8 11 10 12 14 17 23 26 29 31 33 33 31 34 37 38
4 1 2 3 3 3 6 6 8 9 3 2 5 3 7 5 14 11 5 9 14 16 16 15 15 15 20 23 23 23 17 9 13 25 27 26 30 33 34 34 34 35 36 35
3 1 2 7 12 12 12 8 12 16 12 6 4 11 5 6 5 10 11 10 13 13 19 16 14 13 17 20 21 21 21 22 25 9 24 27 29 29 29 30 32 35 36 37
4 1 3 3 5 8 7 13 12 13 16 14 13 10 3 8 2 5 8 12 13 15 18 17 14 14 13 19 18 18 21 23 23 23 23 9 24 29 33 32 32 34 37 38
2 1 2 3 7 9 5 3 10 8 7 11 5 4 9 5 6 5 2 11 15 14 14 14 14 14 18 19 16 18 20 21 24 24 24 24 22 19 16 28 31 35 38 36
3 2 2 3 5 3 4 13 11 13 9 8 7 6 12 10 11 2 7 14 13 13 15 15 12 16 22 22 21 16 18 20 20 21 23 24 25 20 20 19 15 27 37 37
9 4 2 3 3 6 10 4 5 4 3 7 8 10 20 11 20 14 13 15 14 14 12 16 18 19 20 22 22 22 23 21 19 20 21 21 22 24 25 23 22 25 26 26
6 3 3 2 2 4 3 6 14 6 2 10 7 18 21 17 8 7 10 13 15 18 17 17 18 17 17 21 21 21 23 24 24 25 23 21 20 19 19 22 28 26 26 30
3 2 10 4 3 6 6 2 6 2 2 5 14 11 8 7 9 13 11 13 18 17 19 15 15 16 18 19 18 20 20 22 22 22 22 22 22 21 19 21 20 22 25 27
5 4 3 3 3 8 11 7 5 4 3 9 12 15 17 16 15 13 12 13 13 14 15 13 13 15 16 17 17 17 18 17 17 17 20 25 27 25 22 22 24 19 17 13
3 4 2 6 4 6 13 11 12 10 11 8 9 12 13 14 13 12 12 12 11 13 13 14 14 15 17 19 19 19 19 17 16 17 19 20 24 29 26 27 27 22 19 16
4 1 3 3 6 9 12 15 17 14 14 14 12 12 12 14 12 12 11 10 9 14 15 16 16 17 18 19 20 19 19 18 18 18 20 21 24 28 33 30 30 26 21 18
2 1 3 2 10 11 12 12 14 13 14 16 17 15 12 14 14 12 12 11 14 16 18 19 18 18 18 18 20 21 21 16 17 18 18 19 20 23 26 36 39 34 39 27
4 3 2 2 5 9 8 9 9 12 13 14 14 14 14 14 13 13 12 16 16 16 17 18 18 19 20 21 23 23 22 22 20 19 20 21 21 21 22 22 29 40 44 44

GFSCGP_925_spd_069.txt.gz
Wind_Speed
0 2 8 8 6 4 6 5 7 4 5 4 8 11 12 11 7 9 13 9 15 18 12 18 24 28 30 27 25 24 20 24 25 23 21 17 19 20 21 23 28 28 30 32
2 6 8 5 6 7 8 11 12 11 11 4 9 13 14 14 13 9 11 10 15 14 8 11 22 23 25 24 27 26 20 24 27 24 22 17 20 21 24 27 29 26 27 30
5 4 2 6 8 9 11 10 9 10 5 8 11 13 8 13 5 6 6 9 9 19 16 14 18 24 24 24 25 29 28 23 23 26 23 19 18 17 20 23 27 27 29 32
5 4 4 6 5 7 12 7 10 8 6 4 1 5 6 11 8 4 8 7 8 11 13 13 17 21 27 26 27 29 24 23 24 27 25 22 18 12 17 20 27 30 34 35
6 4 4 5 6 7 7 5 6 3 3 3 4 3 7 2 7 8 7 8 10 16 18 18 20 25 26 26 27 28 24 26 27 27 27 25 17 16 16 19 25 29 30 34
6 3 4 7 5 6 5 9 10 5 3 6 8 6 5 6 6 5 5 8 10 13 15 16 14 22 23 23 24 24 25 28 29 27 26 25 20 17 17 20 23 25 29 33
4 11 5 4 3 6 9 4 3 5 4 6 7 8 11 9 9 8 11 13 9 12 13 14 17 17 24 26 26 25 25 23 28 27 25 24 23 20 18 22 22 23 26 31
3 5 9 7 12 5 13 6 3 4 3 2 5 5 3 6 7 12 14 15 11 12 16 19 20 18 25 28 27 25 25 23 26 27 26 27 23 21 20 21 22 24 25 32
3 4 2 6 5 7 4 11 2 1 4 2 3 5 2 17 17 19 13 8 9 8 18 18 17 17 25 28 30 29 27 25 25 28 29 26 26 26 24 22 23 25 26 23
2 4 2 3 6 6 4 3 4 2 3 3 4 2 3 13 16 16 15 9 4 5 7 10 12 12 18 19 20 19 21 22 21 22 26 26 28 27 27 24 27 24 28 25
3 2 6 4 5 7 3 3 2 2 2 2 1 2 1 10 12 11 12 13 11 8 8 8 10 14 17 17 16 16 17 16 16 18 19 20 23 28 27 28 27 31 28 28
1 2 3 7 7 11 10 7 4 2 4 2 1 3 4 9 13 10 13 15 17 16 15 14 12 13 16 19 19 18 17 16 20 22 22 22 26 25 29 29 30 31 36 33
3 1 3 7 4 5 3 10 9 6 1 4 3 2 5 7 12 15 13 14 16 17 18 18 18 17 18 12 12 14 15 16 16 21 22 22 26 26 26 27 29 31 35 37
3 2 2 2 3 2 6 11 7 8 2 2 4 0 3 5 10 13 14 10 14 15 16 15 15 14 18 21 19 17 19 15 7 17 26 25 26 29 30 31 32 33 34 34
3 2 1 6 7 8 11 12 11 8 6 4 3 8 9 10 6 7 10 8 13 15 15 14 13 11 16 20 18 18 20 20 23 19 10 3 20 25 28 29 32 33 33 37
2 1 2 4 4 8 10 11 11 13 11 11 16 12 5 11 10 5 6 9 13 12 13 14 15 14 14 17 17 18 20 21 21 21 18 13 15 14 7 21 27 31 34 34
2 3 2 4 6 10 7 0 6 5 11 6 11 8 8 14 14 11 11 9 11 12 12 11 12 11 14 16 16 18 18 18 20 20 19 20 17 14 13 11 11 10 23 29
4 4 3 3 4 3 5 12 8 5 5 9 9 9 8 6 14 11 13 12 11 10 9 9 9 12 16 18 18 15 19 19 19 19 19 19 19 17 17 15 14 16 17 16
7 4 2 2 3 6 11 3 3 8 8 2 6 6 8 17 19 14 13 13 11 10 9 12 13 14 17 19 17 16 17 17 18 20 20 19 19 16 15 14 16 19 19 21
5 3 3 1 2 3 4 8 3 6 6 3 5 6 17 15 8 4 9 9 9 14 12 13 12 14 17 17 15 15 16 18 19 19 19 18 17 14 15 16 17 16 15 16
3 2 8 6 3 6 5 12 7 3 5 10 7 15 18 7 5 14 12 11 12 12 12 12 14 15 15 14 15 16 16 19 18 18 19 22 24 18 17 16 16 18 20 17
5 4 3 3 4 7 11 9 3 4 11 10 15 14 19 17 16 14 11 11 9 10 12 11 12 14 16 16 15 15 16 14 14 16 17 21 23 21 21 22 22 21 19 18
1 1 2 5 2 5 6 6 10 6 11 6 13 12 17 16 13 11 10 9 9 11 11 11 12 14 14 14 14 15 15 13 12 13 15 19 22 25 23 26 25 22 21 20
2 2 1 1 8 8 8 11 15 15 16 13 12 12 11 14 11 11 8 7 9 11 12 14 14 16 17 17 18 17 12 13 12 13 15 16 21 25 29 26 28 28 23 22
3 2 3 1 8 11 9 10 14 14 16 16 15 13 12 13 12 10 9 9 12 13 14 15 16 15 16 16 18 19 16 14 15 16 16 18 18 18 23 34 31 31 37 30
4 3 2 2 5 5 5 10 10 15 13 12 12 13 12 12 11 11 10 13 14 15 14 16 16 16 16 17 17 17 14 12 11 13 16 18 19 19 19 17 22 33 34 35

GFSCGP_925_spd_072.txt.gz
Wind_Speed
1 3 7 9 7 5 4 7 11 4 7 5 8 9 11 7 8 10 10 9 13 14 19 17 23 27 28 27 26 22 21 22 20 19 16 17 16 15 16 14 7 35 30 40
1 6 7 5 5 7 8 9 11 6 9 10 9 11 11 10 9 13 11 11 13 13 8 8 20 25 29 27 28 20 21 23 23 23 18 14 16 14 14 15 17 27 26 31
5 3 4 3 4 7 9 11 7 9 10 10 5 16 15 11 7 8 8 10 8 13 13 11 15 23 24 26 26 23 23 23 24 24 19 14 14 9 12 16 18 21 25 28
5 3 3 0 4 5 8 7 11 9 7 5 4 7 7 8 9 7 10 9 9 13 11 12 13 16 28 26 23 23 22 22 24 24 21 21 14 10 10 16 20 21 25 26
5 3 3 3 4 5 6 3 6 5 5 3 2 5 4 6 7 8 8 10 8 10 13 15 19 23 26 25 24 27 23 21 24 25 23 22 16 15 14 15 18 22 25 29
6 2 5 6 4 5 5 4 6 4 2 6 7 7 4 5 7 5 4 7 8 7 8 9 10 18 21 22 21 26 20 18 21 24 24 23 20 16 13 14 17 21 24 30
3 8 4 4 3 3 2 2 2 3 3 4 4 7 10 9 9 5 10 12 8 6 9 13 16 17 23 25 23 24 23 19 20 23 22 21 19 18 15 16 18 20 19 26
2 5 6 5 10 5 6 7 3 3 3 2 1 5 3 5 6 7 6 11 6 8 8 15 18 18 25 25 25 24 22 17 18 20 19 18 18 18 17 17 19 21 22 23
3 4 2 5 3 6 1 7 4 4 3 2 3 6 4 15 16 17 16 15 12 7 9 13 13 13 24 25 24 22 20 15 14 19 18 16 16 16 18 17 17 19 21 22
3 3 2 2 5 4 2 2 2 3 3 4 5 1 3 11 13 12 14 14 11 6 8 10 9 11 17 19 19 18 18 17 16 16 18 17 16 16 17 18 17 17 19 16
2 2 3 5 5 7 4 2 1 3 3 3 2 1 4 10 13 11 13 15 14 11 10 10 10 14 16 17 16 15 17 16 15 16 15 17 17 16 15 17 18 19 17 20
4 2 3 8 4 7 3 5 5 3 2 3 1 3 3 8 13 13 14 15 16 18 15 12 12 15 17 17 17 15 14 14 13 15 15 15 15 17 17 18 18 17 19 19
7 3 2 2 3 6 4 1 2 3 1 3 2 2 2 9 13 14 14 14 15 17 16 15 16 15 15 16 12 10 7 6 11 13 14 15 17 18 21 19 19 20 20 23
4 2 2 2 3 2 4 8 6 2 2 2 3 1 3 6 9 12 14 14 15 15 16 15 15 14 19 23 21 21 20 13 3 11 16 15 18 19 21 21 21 21 22 23
3 2 2 3 3 1 4 8 11 8 9 4 3 5 6 10 4 3 11 12 14 15 16 15 14 13 17 22 21 20 22 19 18 18 15 13 5 12 17 20 23 25 26 28
4 2 0 3 2 6 5 10 9 11 12 10 13 12 9 8 10 6 9 13 10 13 13 14 14 14 15 18 18 20 20 17 18 16 15 12 11 9 8 5 3 13 23 28
1 4 2 2 4 7 6 4 5 5 5 6 6 2 8 11 14 14 14 8 11 10 11 12 12 13 14 16 17 17 16 14 18 18 18 17 14 11 10 8 6 5 5 6
2 3 2 2 3 1 5 10 4 1 4 10 7 3 7 9 6 11 11 12 11 10 10 11 10 15 14 17 16 15 16 15 17 18 18 18 17 16 14 12 11 10 10 10
4 3 2 2 2 5 8 3 4 3 9 3 3 5 14 14 11 9 11 13 13 11 10 12 13 14 14 17 14 14 16 16 18 18 19 18 16 15 15 16 15 13 12 11
5 4 2 1 2 4 5 4 9 5 5 7 6 5 14 10 5 3 7 9 14 14 14 11 11 12 14 21 15 15 18 19 19 20 20 20 16 16 16 15 13 13 12 11
3 2 5 4 3 6 4 8 6 1 4 7 9 7 16 3 6 13 10 12 15 15 14 12 15 18 19 17 16 18 18 20 16 18 21 22 19 18 18 16 16 16 16 16
4 4 3 3 3 7 9 5 0 1 6 10 16 13 17 17 17 15 14 14 13 13 16 16 17 18 19 20 18 19 20 15 17 19 23 23 23 20 20 18 19 22 18 19
1 3 3 5 2 4 6 6 8 7 8 10 14 14 13 16 16 13 11 11 10 13 13 15 15 16 18 21 20 17 17 16 16 18 20 23 23 24 25 26 23 20 21 19
4 2 3 1 5 8 9 10 12 13 15 13 14 12 14 11 12 13 10 10 10 13 12 12 13 14 16 18 21 17 15 13 17 21 19 19 25 28 27 28 30 28 23 22
2 5 5 2 5 9 10 9 9 12 14 15 16 15 15 13 13 12 11 11 11 11 13 14 12 14 15 15 17 17 15 14 16 17 18 19 19 18 24 31 28 28 32 24
4 3 2 2 6 4 7 9 12 13 13 11 14 15 15 13 14 11 10 13 12 13 11 12 11 13 14 16 17 16 14 12 14 15 16 17 17 16 14 13 20 27 27 28

GFSCGP_925_spd_075.txt.gz
Wind_Speed
4 7 12 11 9 12 12 13 17 15 12 17 22 21 18 16 13 11 13 14 14 14 16 12 16 21 23 23 23 23 23 22 22 16 15 17 17 16 17 18 18 22 29 37
2 10 11 6 6 9 11 14 17 12 13 13 19 23 18 16 18 16 17 17 16 14 12 9 15 22 26 27 26 24 22 23 21 15 19 12 18 17 17 14 16 20 30 30
6 2 5 7 6 6 9 11 13 12 15 18 20 24 23 20 18 14 16 16 16 14 13 12 14 23 25 27 29 26 24 21 21 20 17 12 16 14 14 14 14 15 28 34
6 4 6 6 5 4 3 5 10 12 9 5 1 8 11 12 15 14 16 13 15 15 12 13 16 17 28 27 25 24 24 22 23 22 20 19 12 12 12 18 16 21 21 29
3 3 4 8 7 7 4 4 7 10 11 11 11 8 3 7 7 10 11 14 14 12 10 14 17 18 19 23 25 23 23 21 22 22 23 20 15 13 15 15 16 18 22 26
5 2 3 5 4 6 2 5 11 8 6 6 14 13 3 5 3 5 5 8 9 10 9 10 14 18 21 23 23 24 25 22 23 22 21 22 20 18 16 17 13 17 20 22
3 5 4 4 5 4 5 4 3 2 4 5 3 9 14 13 8 6 10 12 13 11 6 10 15 17 24 28 25 25 24 22 24 21 20 22 21 19 19 18 17 18 21 23
2 1 5 4 10 3 7 6 3 3 3 3 0 6 2 8 8 9 9 10 11 11 7 14 16 16 22 24 23 24 24 21 22 23 20 21 17 17 16 16 15 16 20 22
5 3 2 3 3 7 4 5 1 3 5 5 5 6 9 12 13 14 14 14 15 12 9 11 11 13 19 21 20 21 22 20 19 22 19 17 18 17 15 13 12 14 18 20
2 3 0 2 4 4 1 5 2 3 3 5 6 6 4 12 14 14 16 16 15 11 9 6 10 11 17 20 19 20 20 19 18 17 15 14 15 15 15 15 14 13 14 18
1 3 1 5 5 8 4 2 2 2 4 3 4 1 4 8 9 10 11 12 14 16 8 6 8 13 17 19 19 19 18 17 16 14 13 13 12 13 13 15 15 14 13 15
2 1 5 8 3 7 4 2 4 3 2 4 3 3 2 11 12 11 11 12 12 13 14 10 11 15 17 17 18 16 15 13 12 11 10 10 10 10 12 13 13 13 14 16
3 1 2 7 4 4 3 3 3 3 2 5 3 1 4 10 13 13 13 12 12 13 14 14 16 15 15 15 16 16 15 12 9 9 8 8 9 9 10 11 12 13 13 13
5 4 5 2 4 3 2 4 3 5 3 5 6 6 3 8 6 10 11 10 13 14 14 15 15 14 18 20 20 18 18 17 9 7 6 3 7 10 10 10 11 11 13 14
2 3 7 6 4 4 2 6 8 8 9 5 5 6 9 6 8 4 6 9 13 14 15 15 14 13 16 18 19 19 20 18 18 17 17 14 12 5 3 4 7 10 13 13
3 3 5 3 6 1 4 9 5 6 8 13 15 16 9 11 9 13 7 9 11 12 13 14 15 16 17 19 17 18 20 18 20 20 18 14 14 12 10 8 6 6 4 1
3 1 2 1 3 7 4 5 6 5 6 9 9 7 2 6 13 15 16 13 10 12 11 13 14 15 19 19 17 20 18 16 18 25 19 17 15 14 14 11 9 9 9 8
3 5 1 1 2 3 2 8 3 3 4 9 11 4 9 11 12 15 12 12 12 11 11 12 12 17 16 14 15 15 21 25 27 21 16 16 14 15 14 14 13 13 12 12
12 4 1 1 2 6 3 4 4 3 5 10 8 5 8 12 11 11 14 12 11 12 10 14 15 16 17 18 18 21 25 20 17 17 17 15 15 15 15 16 15 15 14 14
7 2 1 1 2 4 0 2 8 4 6 11 12 10 9 10 5 3 11 11 11 20 18 17 16 17 18 16 15 17 17 15 20 18 15 13 15 15 16 14 15 16 15 16
5 3 8 6 4 6 5 12 5 4 3 10 11 13 11 5 6 12 12 13 17 19 18 16 18 19 17 15 14 18 17 18 16 15 15 17 17 17 16 16 17 18 17 16
2 5 3 5 5 6 10 3 2 5 5 7 11 15 16 15 16 16 13 11 14 18 18 17 17 18 17 15 15 16 17 13 13 17 19 20 21 20 19 20 20 20 18 19
1 2 1 4 1 5 7 7 7 9 7 7 9 10 14 11 11 12 11 11 13 19 17 17 16 16 17 18 16 16 13 12 13 17 21 21 21 22 23 22 21 22 20 19
2 6 2 4 5 10 9 10 11 11 11 11 11 13 14 14 10 12 11 10 11 18 17 16 15 16 18 17 18 16 12 11 14 17 18 21 24 25 25 27 26 24 21 20
3 6 5 0 8 9 12 10 9 11 12 13 13 12 13 13 12 11 12 11 15 17 17 16 16 16 16 14 15 14 12 10 14 16 17 18 20 22 26 31 27 26 29 22
4 4 2 2 5 7 7 9 10 12 12 11 12 13 13 12 12 11 11 16 16 16 15 17 16 16 16 17 17 15 12 11 12 15 16 16 16 15 14 15 20 25 25 26

GFSCGP_925_spd_078.txt.gz
Wind_Speed
13 11 15 16 16 17 14 13 17 16 16 19 21 22 20 18 18 17 17 17 16 17 15 14 10 15 20 24 26 24 23 22 21 17 15 14 12 15 16 18 17 19 31 18
7 15 14 12 13 16 16 15 16 16 12 12 19 22 18 17 19 22 20 18 18 16 16 14 11 18 23 26 27 26 25 24 22 19 16 12 15 16 15 16 16 15 18 25
14 5 3 12 13 13 14 14 12 13 14 19 21 23 17 17 25 23 21 21 20 19 17 16 13 18 22 27 29 27 27 25 23 19 16 13 14 10 11 15 13 17 18 21
10 10 11 9 12 10 10 3 6 9 9 9 6 7 12 10 12 18 20 19 19 19 18 17 13 16 23 25 25 26 26 26 24 22 18 17 15 10 11 12 14 12 12 23
2 5 6 13 17 10 9 3 7 10 12 14 13 8 3 7 7 13 16 19 19 18 18 17 14 16 21 25 27 27 26 25 24 22 18 17 13 13 12 12 13 13 13 20
13 4 6 9 5 9 3 8 12 12 9 8 12 11 4 3 7 5 7 4 5 8 9 12 11 15 21 25 26 27 27 25 24 22 20 19 16 16 15 13 12 14 17 19
4 13 11 10 10 8 10 8 5 7 5 6 1 6 12 11 11 12 9 11 9 8 7 8 12 14 21 26 26 27 29 25 25 23 21 21 17 16 13 15 13 15 16 20
6 5 8 9 13 3 10 11 6 6 4 6 3 7 2 5 4 6 7 10 11 9 7 6 9 13 18 22 23 25 27 25 24 22 20 20 18 15 13 13 13 12 14 15
4 5 4 8 4 9 6 7 4 6 13 7 8 9 6 3 6 9 11 12 14 16 12 4 8 10 17 21 22 23 25 24 24 22 20 19 18 16 14 13 12 11 12 13
3 8 5 3 6 6 7 2 3 5 4 5 4 7 1 11 12 12 12 13 14 15 15 5 6 9 15 19 20 21 23 22 22 20 19 18 17 15 13 12 13 12 11 12
7 8 5 6 10 8 7 7 3 2 5 4 5 2 6 7 9 11 12 12 13 13 13 8 6 7 15 16 16 19 21 22 21 19 19 16 15 15 13 12 11 10 9 11
3 5 11 16 8 8 10 8 8 4 4 2 3 2 7 8 10 10 10 11 11 11 12 14 10 11 14 14 15 16 17 19 19 17 15 15 14 13 13 13 12 11 11 11
7 5 7 8 7 10 11 7 5 3 2 3 4 2 8 5 10 8 9 9 11 12 12 13 15 14 17 15 12 12 13 15 15 14 16 14 12 11 10 10 10 11 12 11
8 7 11 9 2 2 9 11 10 5 3 4 6 12 5 7 5 3 8 9 10 12 12 13 14 13 17 19 19 18 22 18 10 12 15 13 9 9 9 9 9 9 9 10
3 7 12 5 2 13 4 7 8 11 10 6 9 11 13 12 4 6 9 8 11 12 12 13 14 13 16 18 20 21 23 21 17 16 17 15 14 14 12 8 5 7 7 7
1 4 10 7 8 16 9 10 8 8 5 9 12 12 4 8 6 11 12 10 8 11 10 12 13 14 15 18 19 19 20 20 18 18 18 15 15 15 14 12 12 12 11 7
3 5 10 5 8 8 10 11 5 4 4 4 8 12 9 9 4 13 12 12 12 9 9 11 11 13 16 18 18 19 18 17 17 20 19 15 15 18 15 12 12 14 13 12
3 11 4 3 3 6 7 3 1 3 2 8 8 11 7 8 13 14 10 10 11 10 8 12 11 14 19 18 18 18 20 20 21 20 18 14 17 21 14 13 13 14 14 15
12 4 3 2 3 6 3 6 5 6 4 10 11 11 8 8 9 12 9 11 12 9 10 14 15 16 19 18 17 19 19 18 19 17 16 19 24 20 14 15 14 13 15 17
7 12 7 3 1 1 7 3 8 7 4 11 13 13 12 10 4 3 7 9 10 12 13 15 16 18 18 19 17 18 20 22 27 25 23 23 18 16 17 14 15 14 16 18
5 7 10 6 3 2 6 10 6 6 4 12 11 11 12 2 5 13 11 12 11 13 16 17 18 19 19 17 18 22 22 25 21 20 17 18 16 18 17 15 14 14 16 18
6 6 4 3 3 3 14 2 4 6 5 7 8 10 14 14 14 12 10 9 8 11 16 16 18 20 18 17 17 18 19 16 17 16 16 18 19 16 16 15 13 14 16 18
2 5 3 5 4 5 8 8 6 8 7 5 7 10 12 12 11 10 10 10 10 12 16 16 18 19 19 18 17 17 15 14 17 17 18 19 19 19 17 16 15 17 17 18
4 8 3 5 9 9 8 9 10 11 11 11 12 12 12 13 11 11 9 8 9 13 15 16 17 18 17 16 16 15 13 12 14 16 18 18 19 18 19 19 19 18 18 17
4 8 6 3 6 6 9 8 9 11 11 12 12 11 11 10 10 10 9 9 11 13 16 18 17 17 16 15 15 14 11 11 13 14 14 15 17 19 22 23 20 23 25 18
4 4 3 2 5 6 6 9 9 11 11 9 10 12 12 12 11 11 10 13 15 17 17 18 16 17 16 16 16 14 12 10 11 13 13 11 12 11 12 15 20 23 23 23

GFSCGP_925_spd_081.txt.gz
Wind_Speed
13 12 16 18 17 20 19 19 21 18 17 19 21 23 22 22 24 22 19 18 18 16 13 19 23 13 18 24 27 27 25 24 22 19 17 15 13 13 12 12 14 16 17 18
10 15 17 13 15 16 17 19 20 21 17 15 22 23 20 22 23 23 22 21 21 18 17 18 19 17 20 24 27 27 26 26 23 19 16 12 15 13 13 13 13 14 17 19
15 15 2 9 15 16 18 18 18 19 17 19 22 24 24 23 26 25 23 23 22 18 19 18 19 18 21 24 28 28 27 26 23 19 16 13 14 10 12 12 12 13 14 14
15 15 17 16 18 16 17 17 12 13 14 13 18 15 19 17 14 15 19 22 18 19 18 17 18 19 23 25 26 28 27 26 24 21 18 18 18 14 15 13 11 10 11 14
14 10 10 14 16 14 14 8 11 16 16 18 21 13 15 7 12 9 9 12 19 19 19 20 20 18 24 25 26 27 27 26 24 24 19 19 18 16 13 12 11 11 8 10
16 14 9 14 9 10 14 8 17 20 15 14 21 17 12 5 9 10 8 7 9 15 19 19 18 26 24 24 26 28 29 27 25 24 19 18 16 16 13 13 12 13 10 9
18 17 16 7 13 9 9 10 7 9 10 11 7 4 12 3 9 4 6 7 11 9 10 11 11 12 13 25 28 29 29 27 26 23 19 17 16 16 15 15 14 14 15 13
14 10 12 10 16 11 12 13 8 7 6 12 7 6 4 11 5 3 5 10 11 15 17 9 14 12 16 24 27 29 29 27 25 23 20 19 17 16 13 12 13 13 15 15
13 13 9 9 7 12 6 10 16 15 18 12 10 15 14 13 11 11 11 12 12 13 15 19 6 8 15 21 21 19 26 25 24 22 20 19 16 14 13 11 11 11 12 13
17 17 14 14 8 12 14 4 5 6 5 9 12 14 7 11 13 14 14 13 14 16 18 20 5 6 13 20 19 14 16 22 22 20 18 17 17 15 13 12 11 8 9 11
17 15 18 11 12 16 10 12 8 5 6 4 6 4 6 11 12 12 12 12 13 14 16 18 19 6 16 17 16 15 17 20 18 16 16 15 14 13 12 11 10 9 8 8
10 8 14 21 17 16 9 13 13 6 7 5 5 1 7 8 6 8 11 10 11 12 14 15 14 18 8 13 12 12 16 16 16 16 15 13 14 13 12 10 9 9 7 6
6 6 10 17 14 14 12 17 10 6 2 11 6 1 8 6 6 1 6 9 10 12 14 14 14 13 15 18 13 11 11 17 18 15 12 10 12 15 13 11 10 9 8 7
0 5 14 15 6 3 9 20 11 13 5 7 9 11 10 9 6 2 7 10 8 11 13 13 13 13 16 17 19 20 24 18 18 16 16 12 8 8 7 5 10 10 8 8
5 9 14 20 25 7 1 15 16 16 11 7 11 13 12 8 8 7 9 9 9 10 13 13 13 12 16 18 19 21 23 23 19 23 20 15 14 15 13 10 6 6 11 13
4 9 11 19 22 12 8 14 12 8 9 10 10 10 10 13 9 8 9 9 10 9 11 12 13 13 14 18 17 20 21 21 21 23 22 16 18 18 18 17 16 13 12 12
6 5 6 11 18 8 4 17 17 8 5 6 7 13 17 15 11 11 11 11 10 9 10 12 11 12 15 17 18 19 19 18 21 22 19 17 20 21 20 21 19 19 19 17
9 10 3 12 15 11 7 4 0 3 1 8 9 12 8 11 13 14 12 11 10 9 8 9 10 14 13 15 15 17 21 23 20 21 19 15 19 22 19 20 26 22 20 22
13 7 4 6 10 7 12 6 3 5 6 11 9 11 6 10 9 9 8 10 9 8 7 8 11 12 12 14 15 18 23 19 21 23 21 18 19 23 18 17 25 19 20 22
11 12 4 9 3 5 9 8 4 7 4 11 12 12 14 7 5 4 8 10 10 11 11 10 11 12 9 13 15 20 23 21 23 22 22 16 21 21 20 20 23 19 18 18
8 8 12 7 3 8 13 9 8 7 5 11 11 11 12 5 5 11 10 10 11 10 10 11 11 11 13 14 17 21 20 22 19 20 18 19 20 22 21 22 22 18 16 17
6 4 4 5 3 3 19 5 6 6 5 9 10 9 10 11 11 10 9 8 7 8 8 10 9 14 15 15 17 20 21 17 19 21 22 22 22 21 21 22 21 20 16 18
2 4 3 6 4 10 12 10 9 9 8 9 9 9 10 10 10 10 9 9 9 7 9 11 14 17 18 18 17 19 17 18 19 21 23 22 22 24 24 23 18 16 15 17
3 12 4 3 7 10 10 9 10 10 10 10 10 10 10 11 9 10 8 8 9 13 12 13 16 17 19 19 19 18 16 17 19 21 21 20 21 21 21 20 21 20 16 15
5 7 8 4 5 5 10 9 8 10 10 11 11 11 10 9 10 10 8 8 11 11 12 15 17 17 19 18 19 17 16 15 17 17 17 19 21 22 25 29 22 21 24 20
6 4 4 3 7 5 7 8 10 9 10 9 11 11 11 11 10 10 9 12 12 13 13 16 17 17 17 18 17 16 16 14 14 15 14 14 14 15 15 17 21 24 24 22

GFSCGP_925_spd_084.txt.gz
Wind_Speed
15 11 15 18 19 19 17 19 20 22 20 19 20 22 22 22 20 19 19 19 14 15 13 23 23 31 28 21 32 34 31 28 27 22 22 20 20 17 17 19 16 18 17 19
14 15 16 16 16 15 16 19 20 19 21 20 22 24 21 20 22 21 19 19 18 12 16 13 11 19 19 22 30 31 29 29 28 22 22 20 19 20 19 17 17 17 19 20
17 17 12 8 13 15 17 18 18 22 20 21 20 26 24 23 27 26 21 17 17 14 16 14 12 12 22 19 29 30 30 29 28 22 21 17 16 14 15 16 17 16 17 19
14 17 17 16 18 14 17 17 19 17 16 14 16 16 21 20 18 13 17 19 17 17 19 15 14 13 20 21 27 29 30 28 26 24 22 21 20 15 14 14 17 15 15 16
11 11 12 14 15 16 18 17 15 13 16 19 20 14 16 21 20 18 10 10 11 15 12 10 12 12 27 26 27 28 31 28 26 24 22 20 18 17 15 17 16 15 15 13
18 16 15 13 13 15 9 13 16 15 14 13 22 17 17 15 7 12 13 14 13 2 8 11 13 19 23 29 29 29 31 28 27 25 25 24 22 19 17 18 18 15 14 13
17 19 19 17 11 12 10 11 8 11 10 13 14 10 17 11 3 4 9 16 15 18 19 19 15 15 15 29 30 29 29 27 28 27 24 23 19 17 18 21 18 17 15 11
16 16 16 18 14 10 14 13 8 9 7 11 6 7 1 13 16 21 21 18 17 18 18 19 24 23 7 26 28 28 26 25 27 27 22 20 19 19 16 19 18 19 17 14
11 17 8 3 9 10 10 12 14 18 17 14 11 15 7 22 18 17 16 16 16 19 18 20 23 25 3 24 27 27 25 25 23 23 20 19 18 19 16 16 18 15 14 14
11 14 19 15 12 14 15 7 5 3 4 8 8 6 6 12 13 11 12 12 13 15 16 17 19 22 22 18 17 15 11 27 18 22 20 20 17 16 14 13 12 15 14 15
13 8 13 22 10 15 13 13 12 5 8 3 4 3 1 4 3 8 8 9 8 10 12 14 15 23 29 17 14 14 15 16 18 12 22 17 16 16 15 14 13 11 11 14
8 4 13 20 20 21 20 15 16 8 7 6 9 3 7 7 5 3 7 10 8 9 11 13 14 19 23 25 20 9 12 10 12 10 19 17 15 15 15 13 12 12 14 12
1 5 8 15 16 16 8 11 20 18 3 9 5 4 7 8 5 7 8 10 9 9 12 14 15 15 18 22 21 23 12 15 16 10 15 14 14 13 12 13 13 13 12 11
6 9 11 14 10 14 14 17 17 12 6 5 7 9 11 10 6 9 10 10 9 9 12 12 13 14 20 22 22 23 22 17 14 17 18 18 15 14 15 11 11 12 12 11
11 16 17 21 24 16 16 22 10 17 15 8 9 9 14 11 7 14 10 10 10 11 13 13 12 12 18 23 24 24 22 23 17 22 21 17 15 16 17 19 21 19 17 16
10 12 17 20 20 19 25 20 6 9 10 7 18 3 14 14 11 12 10 10 10 12 11 13 13 14 16 21 21 22 22 23 21 23 23 19 17 16 18 18 20 22 22 20
11 4 8 14 14 14 12 18 10 11 19 10 3 8 12 12 14 13 11 10 10 10 10 11 11 13 17 19 20 21 22 20 24 24 22 22 23 22 21 21 22 23 24 22
15 11 7 7 9 7 12 12 13 6 17 12 10 14 11 10 10 11 12 10 10 10 10 9 6 12 17 17 20 19 22 24 24 23 23 22 24 23 21 25 27 26 28 29
16 10 5 4 5 15 17 7 8 6 9 16 16 16 11 9 8 9 10 9 9 8 7 11 15 11 13 19 14 17 20 21 23 23 24 22 23 23 21 21 22 25 26 33
15 10 3 3 2 4 7 17 5 3 6 14 14 12 12 4 3 3 7 7 8 11 11 13 16 17 19 16 13 16 17 20 20 19 21 23 21 28 20 20 21 24 26 27
8 4 9 9 6 3 17 17 8 1 5 12 11 9 11 5 5 7 7 7 9 11 13 15 16 14 14 17 18 16 16 17 13 24 25 26 20 26 26 22 19 24 26 29
7 6 5 7 6 5 23 12 7 5 11 10 11 10 12 11 10 9 8 7 7 8 11 15 17 15 12 12 15 14 18 15 19 21 25 22 22 19 23 19 22 23 26 26
2 4 3 6 3 7 12 12 10 10 10 11 10 10 10 10 11 10 10 10 11 12 12 12 15 16 16 15 16 16 15 13 16 22 25 25 22 27 25 26 23 24 22 21
10 14 4 3 8 11 12 12 12 12 11 11 12 11 9 10 10 10 8 8 9 14 15 14 16 18 18 19 19 18 16 15 18 21 21 20 24 25 25 27 29 28 21 21
6 7 9 4 5 6 13 11 10 10 10 11 11 11 10 11 11 10 8 9 13 15 17 17 18 17 18 18 20 18 13 13 15 17 19 21 23 27 30 32 27 27 28 21
6 5 4 3 8 4 7 8 11 12 11 7 10 11 11 12 11 11 9 13 14 15 16 16 17 17 17 17 18 18 20 14 14 16 17 16 16 17 18 21 25 25 24 23

GFSCGP_925_spd_087.txt.gz
Wind_Speed
7 4 8 9 11 16 16 16 15 12 12 10 15 15 15 17 19 19 18 21 17 17 11 15 16 32 36 36 33 39 37 38 36 34 33 28 27 23 22 21 22 20 21 23
5 9 13 13 16 16 17 13 8 8 9 12 15 14 11 13 17 14 19 22 19 17 15 12 12 18 31 27 33 36 39 43 39 37 33 25 28 22 21 20 18 18 21 21
9 10 16 17 16 10 9 6 8 13 13 14 12 21 10 14 16 18 19 23 18 17 12 17 8 13 21 23 37 37 40 40 35 34 29 18 23 19 21 21 19 21 22 22
10 12 13 12 11 7 11 8 14 14 12 9 3 16 15 17 20 21 15 19 17 16 14 9 8 7 15 29 38 39 40 39 33 32 30 30 24 19 20 26 22 22 23 24
7 9 8 7 8 5 13 9 8 7 13 9 13 10 13 16 20 17 13 26 6 7 2 5 7 9 22 31 34 36 39 37 35 32 30 31 25 22 24 21 20 20 21 22
12 8 7 8 8 4 6 5 7 8 7 9 19 5 8 8 8 5 11 14 16 16 14 15 15 21 17 28 36 38 40 36 39 33 33 32 28 24 24 23 23 24 22 20
14 16 19 15 10 3 4 2 3 3 3 8 5 6 2 22 16 16 15 15 14 15 16 17 18 16 19 20 28 34 34 32 36 35 34 31 28 27 27 26 27 25 21 19
8 14 9 14 17 9 7 8 4 4 3 10 17 4 2 6 18 16 12 10 13 17 16 15 16 17 20 22 25 34 30 29 34 33 33 28 27 28 26 27 27 23 20 20
6 6 12 11 4 9 4 6 14 11 10 8 6 7 10 9 10 14 17 15 17 17 17 17 19 20 29 12 23 32 32 30 31 34 28 27 28 28 24 22 23 21 22 19
6 8 7 10 10 6 8 4 3 2 4 5 5 2 2 11 7 9 11 13 14 15 17 17 17 19 28 30 20 8 26 33 34 32 29 28 26 21 20 23 21 18 19 18
7 1 9 11 3 6 5 6 4 4 5 3 4 2 3 7 8 5 8 12 12 13 14 14 14 21 24 27 32 29 14 20 28 30 29 28 26 20 21 19 19 19 16 17
3 3 6 16 21 18 17 10 5 7 6 5 0 1 5 10 7 5 9 10 11 12 12 13 13 19 25 26 26 24 24 17 22 23 27 26 24 20 20 20 19 18 17 16
5 3 5 10 7 7 8 8 11 15 0 8 6 3 10 11 5 11 10 9 10 12 13 13 14 15 20 23 26 27 28 16 16 24 23 21 18 19 19 18 16 18 18 14
2 3 6 8 13 11 11 20 17 6 4 4 5 6 1 1 13 11 10 8 9 11 13 12 13 13 20 24 26 26 28 25 17 23 24 21 17 15 15 17 19 17 17 17
2 5 8 13 18 19 17 21 17 14 16 5 9 11 9 13 14 10 10 8 12 13 14 13 12 11 17 22 24 26 26 28 18 21 27 22 20 18 20 20 20 20 20 20
3 3 5 11 17 18 21 19 16 14 15 8 2 7 12 14 13 13 10 10 11 12 12 12 13 12 15 18 20 21 26 27 24 23 23 19 22 21 21 20 21 22 21 21
7 3 2 8 13 12 10 13 16 10 7 1 0 5 4 9 13 12 10 10 11 11 11 12 12 11 14 15 17 22 22 26 27 25 23 21 21 23 22 21 21 23 23 23
12 5 3 6 10 5 3 14 9 18 11 12 14 11 8 11 11 12 11 9 10 10 10 9 9 14 16 15 17 24 25 26 28 28 25 23 23 23 24 26 25 24 24 25
16 7 2 3 3 8 5 9 8 1 9 16 12 11 8 12 11 13 10 9 9 8 8 11 15 15 17 19 15 22 26 25 27 26 27 23 27 23 24 26 27 25 25 26
10 12 6 2 3 4 10 17 24 20 6 13 11 9 8 5 0 3 7 7 8 11 11 11 13 14 15 18 21 20 23 23 24 24 24 24 26 23 25 26 27 28 27 27
4 4 9 6 2 3 9 24 24 3 4 10 10 10 12 6 6 6 4 7 10 12 15 16 13 14 16 19 20 22 22 22 22 24 26 26 24 25 29 20 27 30 27 25
3 2 3 4 4 1 21 9 7 5 10 11 11 10 13 12 11 9 9 9 8 11 14 17 14 16 14 14 15 20 22 22 24 25 25 25 23 27 26 27 25 25 26 27
3 4 2 5 3 6 8 10 10 11 10 10 10 9 10 10 10 9 8 9 12 13 14 13 13 15 17 13 15 18 19 19 19 22 24 25 24 26 27 25 25 21 23 17
10 14 3 4 5 10 10 9 11 10 11 11 11 10 9 10 9 8 7 9 12 15 16 16 17 18 19 20 19 17 17 17 17 19 22 23 25 26 26 25 26 26 22 19
3 6 6 5 8 8 10 10 8 8 10 12 11 11 11 9 8 9 8 9 13 15 17 18 17 17 18 20 22 22 17 15 18 20 20 22 23 22 26 27 26 28 24 19
5 4 3 3 6 5 4 6 7 10 10 10 10 11 12 12 10 11 8 13 14 15 16 18 18 18 18 20 22 23 20 19 19 18 15 17 19 16 18 20 26 26 24 23

GFSCGP_925_spd_093.txt.gz
Wind_Speed
4 3 10 11 7 3 4 4 6 7 10 4 13 21 19 11 6 11 14 13 12 11 13 21 26 34 33 30 25 32 36 38 36 33 31 27 33 36 33 35 35 34 33 30
2 9 11 6 5 6 6 7 11 7 13 6 10 18 14 7 8 8 13 11 12 16 19 18 27 30 29 31 26 30 37 40 41 38 36 25 31 30 35 36 33 33 32 30
6 9 4 7 5 5 7 6 10 12 5 6 5 14 12 7 3 8 8 6 8 11 17 19 19 25 27 23 19 28 38 42 43 35 31 22 27 21 22 30 32 32 32 30
6 11 12 7 8 8 7 9 12 7 4 5 4 8 20 4 4 3 5 6 8 10 12 16 16 19 26 29 25 30 35 40 35 36 38 37 35 20 26 29 34 34 30 30
7 2 4 8 8 8 8 9 7 3 4 7 5 1 9 6 4 7 10 8 7 10 12 16 18 22 28 29 32 25 33 32 32 43 39 38 26 24 21 23 25 32 28 27
7 2 3 6 6 6 3 2 3 3 2 5 12 7 5 3 3 9 9 7 10 12 14 14 21 26 28 31 30 14 25 27 30 32 34 36 33 31 28 27 23 30 28 26
2 4 3 1 3 2 4 4 2 3 1 6 4 2 6 5 9 9 9 10 11 14 14 14 18 19 27 30 32 22 21 25 26 28 28 34 36 36 34 30 28 28 26 23
3 2 3 4 2 3 5 7 5 6 4 6 2 5 5 6 6 3 7 7 14 17 14 16 18 16 24 27 28 24 15 20 24 24 29 30 35 31 32 34 32 29 24 22
2 4 3 5 2 1 2 1 4 5 2 3 4 5 6 5 5 1 7 12 15 15 14 17 17 20 25 26 27 25 10 19 26 27 25 26 27 30 31 31 30 26 23 24
1 2 3 4 1 7 6 4 3 3 3 4 4 4 4 3 6 4 9 12 12 14 16 16 16 22 27 26 28 28 23 10 18 29 24 23 27 27 28 28 28 24 22 21
1 3 3 4 4 2 4 2 3 3 4 3 3 4 4 4 5 6 6 10 10 13 15 16 16 23 25 27 28 29 29 10 15 15 19 22 26 28 26 27 25 22 21 20
3 2 1 1 8 5 3 2 4 1 3 3 3 5 7 7 7 7 8 11 9 11 12 13 15 20 22 24 27 27 27 23 16 11 14 22 27 26 28 24 24 22 20 17
1 1 2 1 4 5 4 4 3 3 6 7 5 4 10 5 6 8 9 11 10 11 13 14 15 16 21 23 25 25 27 29 22 1 12 18 23 27 26 26 23 21 17 14
3 1 3 4 4 1 6 9 8 6 3 5 7 12 11 13 8 9 10 10 11 12 14 14 14 15 22 25 25 27 29 29 27 20 8 7 23 26 25 20 21 19 17 15
3 2 2 5 5 5 9 13 14 14 13 11 13 16 11 3 5 8 9 11 12 13 13 14 14 14 20 24 27 27 28 31 27 24 20 12 17 23 28 25 23 20 18 17
3 1 1 6 5 8 13 16 16 17 17 15 17 20 6 5 4 8 9 11 12 13 12 13 13 14 17 22 25 25 24 23 27 26 26 19 14 17 24 24 22 21 18 16
3 3 2 5 2 8 11 8 11 16 16 10 13 7 10 5 10 9 8 10 11 11 11 11 12 13 18 21 22 24 25 25 25 26 28 30 27 24 25 22 21 21 19 16
5 5 3 3 3 4 2 7 9 5 7 5 2 8 10 11 10 8 9 9 9 9 10 11 12 16 21 22 25 25 27 27 27 26 23 28 22 26 26 25 26 23 21 20
12 5 2 2 3 8 7 5 6 5 3 7 5 9 11 11 8 10 9 8 8 7 8 12 16 18 21 24 23 23 27 26 28 27 28 28 20 24 24 28 27 26 27 27
7 5 4 4 3 4 1 13 11 5 1 9 7 7 3 6 1 2 7 8 8 11 11 12 16 18 22 25 24 22 23 24 26 26 28 31 30 29 22 27 26 25 29 30
4 3 8 4 3 5 10 16 12 2 3 7 10 10 7 5 5 5 5 7 12 14 15 16 18 18 20 20 22 22 21 23 23 27 27 28 29 29 25 26 24 26 27 31
3 2 3 5 5 3 16 6 5 3 6 6 10 10 11 11 10 9 9 8 10 12 15 17 16 18 19 21 19 20 20 20 24 26 27 26 25 25 25 25 26 26 24 25
2 3 2 4 2 4 5 6 7 8 5 7 9 8 8 9 7 7 8 8 10 13 14 16 16 17 21 20 21 19 18 20 23 28 28 25 23 23 22 24 24 22 23 22
4 7 2 2 4 5 7 7 8 8 10 10 8 7 9 8 6 7 7 6 10 14 14 15 16 17 19 22 21 20 19 18 22 25 25 25 26 25 23 23 22 21 19 17
3 4 3 3 4 4 7 7 8 10 10 9 8 8 7 7 7 7 7 7 11 13 16 17 15 14 18 21 22 19 15 19 19 19 20 20 22 22 24 26 23 23 19 19
2 2 2 1 3 3 4 6 7 9 8 7 9 9 10 10 7 7 6 10 10 12 16 17 18 19 20 22 21 20 16 14 14 15 15 15 14 16 18 19 23 24 21 20

GFSCGP_925_spd_096.txt.gz
Wind_Speed
6 5 7 18 5 4 2 3 5 5 9 4 10 14 10 10 6 8 7 6 7 8 7 15 21 23 29 27 23 28 33 36 35 32 29 28 31 34 34 38 39 35 32 31
2 8 13 6 5 5 5 4 6 6 7 5 10 18 10 8 5 3 4 4 4 7 12 14 22 19 20 27 25 21 30 35 37 34 35 27 33 31 32 28 30 38 36 32
7 6 9 7 4 5 5 5 5 7 5 5 5 9 2 3 4 2 1 2 2 6 12 15 16 23 22 24 24 24 23 29 37 36 33 26 23 17 20 24 32 32 38 35
6 8 7 5 6 8 4 9 9 7 3 4 2 7 2 3 4 2 6 7 7 11 13 12 14 20 24 25 26 27 25 25 34 34 33 34 32 23 26 30 25 18 30 34
7 5 6 4 10 7 8 7 7 5 5 4 3 1 4 3 3 3 7 8 8 10 11 15 15 22 28 25 27 26 28 24 29 34 37 36 30 26 26 31 28 33 34 27
7 1 4 7 6 7 3 2 2 3 2 2 9 7 4 2 4 2 3 4 7 9 12 14 20 24 26 26 27 28 27 25 29 33 34 35 31 28 28 28 27 31 34 34
2 4 1 2 3 1 3 4 2 2 1 4 5 3 7 4 4 3 3 2 6 8 12 13 17 18 26 29 31 30 28 26 24 28 28 29 29 30 31 36 35 32 30 33
5 2 4 5 2 2 4 6 4 5 3 4 3 5 5 4 3 1 5 5 6 10 13 13 16 18 25 30 31 32 31 32 20 24 24 22 26 25 25 24 26 29 31 28
3 2 3 5 3 1 3 3 2 2 1 2 3 5 5 3 4 6 7 9 10 11 14 15 17 23 27 30 31 30 31 31 16 21 22 24 27 27 25 22 21 21 25 25
1 2 3 2 1 6 5 2 2 3 2 5 2 2 3 6 6 5 9 9 12 13 15 16 16 21 26 30 32 31 30 28 7 15 20 21 22 23 23 17 24 26 23 21
2 2 3 2 3 1 4 2 4 2 2 3 2 4 5 4 4 6 8 10 12 13 14 14 15 22 24 26 30 31 33 31 23 12 17 20 22 22 18 19 23 24 22 21
1 3 2 2 7 2 1 4 4 3 2 2 2 4 1 4 8 8 8 10 11 11 13 14 15 21 25 27 31 31 32 30 29 14 12 18 18 15 16 28 27 24 21 21
3 1 3 2 2 3 4 4 4 0 2 5 2 4 3 7 8 8 7 7 11 13 15 15 15 16 23 28 31 31 31 31 29 23 11 4 4 10 19 28 25 22 21 19
3 2 3 3 2 2 1 3 2 4 2 3 10 14 19 6 7 8 6 7 8 11 13 14 15 16 23 26 27 29 31 31 29 25 23 19 11 13 21 25 25 23 20 18
3 2 2 4 1 2 4 9 10 7 10 5 16 14 12 2 2 7 7 8 9 11 14 14 14 15 21 26 27 28 28 29 25 27 30 25 19 14 9 25 28 24 23 21
4 2 2 2 6 7 8 11 10 13 14 16 19 21 6 6 8 8 8 9 10 12 13 14 14 15 19 24 26 27 29 29 27 27 25 25 24 20 19 17 27 26 21 19
1 3 2 2 0 4 6 1 0 6 9 12 15 15 9 6 8 6 6 7 10 11 12 13 14 14 20 23 24 24 25 28 28 28 26 21 29 27 28 24 20 25 22 20
4 4 2 2 2 1 1 5 1 8 7 11 8 5 9 12 10 8 6 8 9 10 10 11 13 17 21 23 24 23 27 28 28 29 31 31 30 29 28 23 28 25 24 24
5 3 1 2 1 5 4 5 5 4 4 7 8 4 11 13 14 11 9 10 10 8 9 12 16 17 20 23 24 23 27 27 28 28 30 32 30 27 26 29 27 27 28 28
6 3 2 2 2 4 2 11 11 8 4 8 8 5 6 8 2 3 7 10 10 13 13 14 17 18 20 23 23 22 24 25 27 27 27 27 29 28 35 27 23 26 28 28
4 3 4 3 2 3 8 13 8 3 4 8 7 6 6 5 7 8 9 11 13 13 14 16 17 18 21 19 19 22 22 24 24 26 27 29 28 29 28 30 31 24 29 29
2 1 2 3 4 4 13 3 5 5 4 6 6 7 14 12 12 10 9 9 11 12 15 17 15 17 20 23 19 20 22 21 23 25 28 28 28 27 27 28 27 28 30 28
2 0 1 2 2 3 4 5 5 7 5 6 7 10 13 10 8 7 7 8 10 13 14 15 15 16 22 22 22 20 21 22 23 26 28 28 27 28 28 29 28 27 27 22
4 4 2 3 2 3 5 7 8 9 8 9 10 11 10 10 8 8 6 6 10 13 14 15 17 17 19 22 23 20 20 20 22 23 23 23 24 27 28 28 28 28 25 23
2 3 2 3 4 5 7 6 6 7 8 10 10 10 10 9 8 7 6 7 11 13 16 17 15 16 18 21 21 20 19 19 19 20 20 20 21 21 24 29 25 26 27 24
2 2 1 2 1 3 4 5 6 7 8 8 9 11 11 11 8 9 8 12 13 15 18 20 20 21 21 22 24 22 19 16 17 17 17 17 18 18 18 18 27 29 24 23

GFSCGP_925_spd_099.txt.gz
Wind_Speed
6 8 16 17 14 9 3 3 7 7 9 4 10 10 13 14 7 11 4 1 4 7 11 16 21 20 18 17 23 22 24 24 18 24 26 29 31 33 33 35 34 33 36 36
6 19 14 11 11 10 10 10 11 10 10 7 10 13 14 12 6 3 4 1 4 8 13 16 22 25 26 25 20 26 25 24 20 25 29 31 32 31 30 26 31 36 36 37
16 3 17 16 11 10 8 10 7 9 4 6 6 6 2 2 4 6 5 2 3 7 12 15 18 22 23 26 26 25 30 28 25 21 26 26 24 23 23 31 36 38 38 38
10 11 10 14 15 11 13 13 14 9 3 3 3 5 3 4 2 5 1 3 7 11 12 13 14 20 24 26 26 26 28 28 26 23 27 31 29 26 30 32 31 31 32 34
10 6 13 13 12 13 8 9 11 7 5 2 3 5 1 3 4 4 3 6 9 12 14 16 17 23 24 24 28 29 30 28 25 26 30 34 31 31 24 26 31 31 34 38
11 3 6 7 9 17 5 6 4 2 3 6 12 10 4 4 4 2 2 7 10 14 16 17 22 26 27 28 29 30 30 30 26 25 30 35 34 30 25 28 29 30 36 38
3 11 2 1 4 6 11 6 4 4 4 5 4 8 9 7 4 2 4 8 12 14 16 17 19 20 27 28 30 30 30 31 27 25 25 32 32 32 31 31 30 28 28 33
8 4 1 3 1 4 9 7 4 5 5 2 3 6 2 7 11 11 9 8 11 15 16 17 18 23 24 28 30 32 32 32 31 25 22 25 27 25 25 27 26 27 25 26
4 3 3 7 4 1 4 4 1 2 1 3 5 3 5 11 9 8 9 10 12 14 15 17 19 24 24 28 31 30 32 32 30 28 18 22 24 24 24 22 23 22 17 20
2 4 2 3 1 5 2 3 3 1 4 7 4 4 2 9 8 8 11 11 11 12 14 14 15 23 27 28 30 31 31 30 31 30 14 18 20 23 23 20 19 23 18 16
2 2 1 1 5 2 3 2 4 2 1 3 4 2 2 2 4 4 6 7 9 12 14 13 14 23 25 29 28 29 32 33 35 31 5 12 17 22 22 21 21 24 23 13
1 2 3 3 4 3 1 2 2 2 4 1 3 4 3 5 3 3 4 6 8 10 13 13 15 25 26 29 32 33 33 34 31 28 25 2 8 13 15 20 21 28 22 17
2 1 3 2 1 2 5 4 5 3 2 4 4 1 6 6 3 4 4 5 8 11 14 13 17 18 22 26 27 29 31 32 33 30 27 21 13 1 12 21 23 25 26 24
3 2 1 4 2 3 4 4 3 3 3 3 10 15 15 15 8 3 5 6 7 11 13 14 16 15 22 24 26 26 28 31 32 29 26 25 22 14 5 12 20 26 28 27
2 2 1 1 3 2 3 8 7 7 8 7 8 16 19 16 13 4 2 5 9 11 13 14 16 14 21 24 27 29 30 33 31 27 27 25 20 17 15 11 10 14 27 28
3 3 2 3 6 6 9 12 10 9 10 13 16 21 19 10 8 7 5 5 7 9 12 14 14 16 20 24 26 27 28 29 29 29 30 26 26 24 21 22 16 16 25 27
2 4 3 2 1 3 8 8 9 2 5 9 12 16 12 5 8 5 6 5 6 8 10 13 13 16 20 22 23 25 26 28 29 30 30 29 24 24 26 25 30 23 18 28
4 4 2 1 2 3 4 6 2 4 9 3 11 11 8 10 12 8 7 5 7 8 11 11 14 18 21 21 24 23 26 27 27 28 29 31 28 27 26 32 28 26 25 22
3 3 2 1 2 4 4 4 3 4 3 8 10 7 9 13 14 11 8 9 9 9 11 13 17 17 18 22 23 23 25 26 27 28 29 29 29 29 29 32 29 32 25 26
6 2 1 3 2 2 1 11 8 7 3 10 9 8 10 6 1 4 8 8 10 13 13 15 18 18 21 23 21 22 24 25 27 27 26 28 29 30 31 32 29 28 31 30
4 3 3 3 2 1 6 13 8 3 5 8 10 10 4 5 6 8 7 9 12 12 16 16 17 19 20 21 21 22 22 25 23 25 26 28 28 28 29 31 31 32 30 31
1 2 2 3 3 2 12 2 3 5 5 7 9 10 13 13 10 8 8 9 12 15 17 17 17 18 19 20 21 21 22 21 23 24 27 28 29 27 27 29 28 27 25 27
1 1 1 2 2 3 6 6 5 6 6 7 8 9 10 8 7 9 10 10 13 14 15 16 16 17 20 21 21 21 20 20 20 23 25 26 28 29 27 26 24 23 23 21
2 3 2 4 3 5 6 7 7 8 9 8 9 9 8 10 9 9 8 9 12 14 16 15 17 19 20 21 21 19 19 17 19 21 21 21 25 26 26 25 24 21 20 20
1 2 2 3 6 7 7 7 7 9 9 10 9 9 9 11 10 9 9 11 13 14 15 16 16 16 18 19 21 21 20 17 18 18 18 19 19 20 23 29 26 24 27 20
1 2 2 2 3 4 5 7 7 9 8 8 10 11 12 13 11 12 11 12 12 13 14 16 16 16 17 19 21 23 21 19 16 17 17 16 15 15 15 16 20 30 29 27

GFSCGP_925_spd_102.txt.gz
Wind_Speed
18 12 24 24 22 21 10 15 14 8 8 6 15 17 16 15 13 13 10 7 3 2 5 9 12 13 15 16 18 19 21 21 20 19 20 25 28 30 32 33 33 29 27 35
14 25 25 18 18 20 22 19 19 15 16 11 15 16 13 14 15 8 7 8 4 2 7 11 16 18 18 18 19 20 21 23 22 21 21 25 27 29 31 30 30 27 31 34
20 19 10 21 18 19 21 21 16 15 5 12 13 18 14 6 7 8 7 5 3 4 7 10 13 17 20 23 23 23 23 23 24 23 23 24 28 27 24 28 29 34 32 33
10 19 19 14 23 22 22 16 15 12 9 10 7 4 12 8 11 10 8 5 3 5 8 10 11 15 19 20 23 24 23 24 24 23 23 24 28 28 32 31 33 32 34 36
16 21 24 19 16 17 19 7 14 15 13 13 15 7 6 13 10 12 9 5 4 6 9 11 13 16 18 20 24 25 23 25 26 24 23 26 29 32 30 26 28 29 35 40
14 1 5 15 17 16 9 6 10 10 11 13 16 12 10 13 11 11 8 5 6 9 11 12 15 17 18 21 22 24 24 27 26 25 25 27 32 35 30 27 26 27 31 36
13 19 18 13 14 14 21 12 6 8 8 12 2 9 4 10 6 5 6 5 8 10 12 13 16 18 22 24 26 26 25 30 29 28 27 26 32 37 31 30 24 22 27 28
9 7 19 9 15 10 22 19 9 10 11 10 6 8 6 10 12 10 7 6 8 10 12 15 16 19 22 25 27 28 29 33 35 32 31 28 27 31 29 26 21 24 25 29
13 8 4 4 5 6 15 19 18 9 5 6 8 7 8 9 8 6 5 6 8 10 12 15 17 21 24 25 28 29 29 32 33 33 34 29 22 25 21 22 23 25 26 26
1 5 4 5 5 4 6 8 7 8 12 15 12 10 3 8 5 5 6 6 7 10 13 14 16 21 23 24 26 28 27 29 33 35 33 31 12 16 19 25 24 27 26 22
7 6 5 2 2 2 4 5 4 4 5 7 11 2 4 8 5 5 7 8 10 11 13 13 14 21 23 24 26 28 32 34 36 36 35 32 9 13 17 21 21 27 25 25
5 2 4 2 3 2 3 2 3 5 8 4 6 6 4 5 6 7 7 8 8 10 11 12 14 21 24 25 28 29 30 32 34 33 30 27 19 11 14 20 25 28 27 27
2 2 3 2 1 1 2 1 2 2 1 9 9 3 5 3 2 2 6 8 7 8 11 12 13 16 20 24 27 30 32 31 37 33 30 26 25 20 15 4 15 22 21 24
1 3 5 5 3 4 4 7 4 2 3 4 9 13 4 8 15 15 1 4 5 8 10 12 12 14 20 23 26 29 31 32 35 26 25 26 27 24 20 12 3 12 16 16
1 3 2 4 4 2 2 6 7 10 10 6 9 11 14 16 18 9 2 4 5 8 10 11 12 13 19 23 25 28 30 31 29 29 33 32 27 30 20 16 12 7 11 15
2 3 1 2 3 4 8 9 10 11 12 14 15 16 11 17 5 2 2 5 5 8 10 12 13 15 18 22 24 25 28 30 29 30 28 26 32 26 24 22 18 19 12 12
3 4 3 2 2 1 7 5 10 9 7 7 11 12 17 15 3 4 5 8 7 9 10 11 12 14 17 22 22 23 24 25 28 28 30 32 30 27 29 26 25 26 27 24
6 6 3 3 3 4 6 5 7 3 9 5 8 12 10 9 10 10 10 9 9 10 9 11 13 15 18 20 21 21 22 24 25 28 31 33 33 32 31 26 26 28 29 32
4 3 3 3 5 4 4 4 3 3 2 6 8 10 2 8 10 11 10 10 9 9 9 11 13 14 17 20 20 20 23 23 26 28 28 29 30 29 29 30 27 26 28 32
6 2 3 3 3 4 5 7 4 1 6 5 7 8 7 10 5 5 9 9 9 11 10 12 12 14 19 21 20 21 23 24 26 26 25 26 27 29 28 27 28 26 27 32
5 2 5 5 3 5 1 9 3 6 5 6 7 8 8 4 6 8 8 9 10 10 11 11 13 17 19 18 20 22 22 24 22 25 27 27 29 28 28 27 27 27 28 31
4 5 4 3 3 2 11 1 4 5 6 5 7 9 13 12 10 9 9 8 10 11 13 13 15 18 19 20 20 21 22 22 23 24 25 26 27 28 28 27 28 28 25 26
3 3 2 4 4 5 7 6 4 4 6 7 7 8 8 9 9 9 7 7 10 13 13 14 15 17 19 20 20 21 20 18 19 22 24 25 27 27 27 28 27 24 26 24
4 4 2 6 5 6 6 6 7 7 8 8 9 8 10 10 7 7 6 7 11 14 15 15 17 18 19 20 21 20 19 17 17 19 19 20 23 27 30 26 27 27 24 21
3 5 6 5 7 8 6 6 7 8 9 10 9 9 9 8 7 8 8 11 14 15 16 16 16 17 19 19 20 21 21 18 17 17 17 18 18 19 20 29 32 27 31 28
1 3 3 2 8 6 8 7 8 8 9 9 10 10 10 10 9 10 10 12 13 14 14 15 16 16 17 18 20 21 22 21 18 17 17 17 16 15 15 14 17 25 26 27

GFSCGP_925_spd_105.txt.gz
Wind_Speed
17 16 23 25 27 29 27 25 30 25 17 14 16 20 17 16 18 18 14 14 9 7 4 3 4 6 9 11 14 16 18 17 17 17 18 20 22 26 28 31 31 29 29 31
17 20 29 23 22 19 27 28 28 24 22 12 18 22 20 20 19 16 15 11 9 7 4 4 5 8 11 12 13 15 17 19 19 19 20 22 23 27 25 29 29 31 30 28
25 25 12 21 17 18 23 27 24 22 25 22 19 24 21 19 18 16 8 11 9 5 1 4 8 10 12 13 15 16 17 19 20 20 22 23 25 28 31 26 27 28 34 35
19 22 23 11 17 21 20 24 21 25 21 17 22 17 19 23 10 11 13 12 11 6 3 7 9 13 15 15 16 17 18 20 19 19 21 21 25 27 25 31 26 28 33 33
15 15 21 28 28 12 19 18 23 27 22 21 19 10 13 18 18 17 16 12 9 4 5 7 10 13 14 16 19 20 21 21 21 21 20 21 24 28 30 33 29 28 31 32
16 3 9 25 17 15 12 13 18 20 18 16 21 18 13 13 17 19 16 12 6 4 6 8 11 13 15 17 19 21 22 24 22 22 22 23 25 27 31 30 31 28 26 31
13 17 6 9 15 20 18 8 4 5 8 11 15 12 19 5 8 18 17 13 4 5 8 9 11 13 17 19 21 23 23 25 25 24 24 24 26 28 32 36 33 27 24 26
10 7 19 20 19 12 26 19 6 5 5 8 12 6 7 9 17 14 12 8 4 7 8 10 12 16 19 22 24 24 26 26 27 27 28 28 27 26 31 38 34 27 25 25
5 9 14 12 17 20 10 21 24 15 16 10 7 10 10 9 9 10 9 5 7 8 9 11 12 16 19 22 23 25 27 27 28 30 29 30 29 26 31 37 30 28 24 23
5 3 7 11 9 15 16 14 16 7 5 10 11 16 8 14 11 10 9 7 8 10 11 12 13 18 20 21 23 25 25 28 29 30 28 30 33 33 24 26 26 25 23 25
3 4 4 3 9 5 12 9 6 6 8 6 11 2 6 12 11 9 7 8 9 10 10 11 12 18 19 22 23 25 27 28 31 32 31 33 37 36 26 13 19 23 24 26
9 4 6 12 4 4 9 10 4 3 6 7 9 1 7 11 10 3 5 5 7 8 10 11 13 17 20 23 25 25 29 29 29 29 30 32 35 35 29 19 16 16 21 24
8 7 8 8 8 6 7 7 7 5 5 11 9 2 8 6 5 6 4 7 7 9 11 12 13 14 19 22 24 26 29 32 31 31 32 30 34 33 31 26 17 13 18 18
2 5 8 6 2 2 6 9 8 5 5 10 11 9 6 6 11 12 13 8 9 10 10 11 12 13 19 21 24 26 27 31 32 32 33 34 32 31 29 26 23 17 4 18
5 6 6 2 1 1 2 6 7 8 9 6 10 11 9 12 12 10 9 9 9 9 11 12 13 13 19 21 24 26 26 28 30 30 33 33 29 27 26 29 26 22 19 11
2 3 5 8 4 6 8 9 11 11 11 13 13 11 14 13 12 9 7 7 7 9 10 11 13 15 18 21 23 23 24 25 27 29 32 32 32 32 36 31 27 28 25 24
4 4 4 7 2 4 9 6 8 10 10 7 9 9 14 13 11 12 10 8 7 9 10 12 12 14 18 20 20 22 22 23 26 28 30 31 32 33 35 32 32 34 29 28
5 5 3 1 4 5 6 8 4 7 7 8 7 10 9 6 7 9 10 8 9 10 11 12 13 16 19 18 20 20 21 24 26 28 29 30 30 30 30 30 30 29 31 33
5 4 3 3 7 7 6 6 3 3 3 6 6 7 2 6 8 9 9 9 9 9 10 10 14 16 17 18 20 19 22 25 27 27 28 29 30 29 31 31 30 33 34 31
3 2 4 5 4 4 6 6 6 3 4 5 7 7 6 6 5 6 8 9 8 10 10 12 13 15 15 19 19 21 24 25 25 26 27 28 28 29 30 30 29 29 30 29
5 3 7 6 5 5 1 6 3 4 5 6 7 8 6 2 7 8 8 8 10 11 12 11 14 13 15 16 17 19 21 23 23 24 27 29 30 29 29 27 32 27 26 27
7 7 5 4 4 3 9 1 2 3 5 4 7 9 12 12 12 10 9 9 11 12 12 12 12 14 18 19 19 19 16 18 21 23 26 29 31 28 30 30 27 29 26 26
2 2 2 4 3 4 7 7 4 3 6 6 7 8 9 10 10 9 8 9 12 13 11 11 13 16 18 20 21 21 21 18 18 19 20 23 26 30 28 30 30 29 27 26
3 5 3 6 6 6 7 7 7 7 8 8 8 9 9 10 8 9 8 8 10 12 13 14 15 17 19 19 20 20 20 18 19 19 20 20 21 23 28 28 28 30 30 24
2 8 7 4 7 8 6 7 8 9 9 10 9 8 9 9 9 9 9 9 10 11 12 13 14 15 17 18 20 22 22 21 18 19 20 20 19 20 17 22 26 25 30 29
1 4 3 2 12 5 10 9 9 9 9 8 10 9 10 10 9 10 9 10 11 12 12 13 14 15 16 17 20 21 21 21 20 18 18 20 18 18 18 17 13 20 23 25

GFSCGP_925_spd_108.txt.gz
Wind_Speed
17 15 18 20 21 25 27 27 30 28 27 29 24 23 21 18 20 13 15 14 11 10 15 17 14 12 8 9 11 14 15 16 18 16 16 17 18 19 22 26 30 27 31 33
18 24 22 23 23 23 24 26 25 25 26 24 20 19 28 19 20 18 17 17 13 11 13 12 12 11 7 8 13 14 15 17 18 18 21 21 23 26 29 29 26 29 38 34
22 23 22 23 21 22 25 22 22 24 23 26 19 17 24 29 21 19 18 16 16 15 14 11 9 10 9 11 12 14 17 18 19 19 20 20 22 24 25 30 36 37 37 39
20 23 21 25 22 15 18 20 23 21 14 11 10 8 21 26 21 23 18 11 15 15 12 10 8 8 9 15 15 15 18 20 19 22 21 22 22 22 27 33 31 31 33 39
24 16 13 20 22 17 18 12 13 16 18 14 22 10 15 25 25 19 12 15 16 14 10 10 8 10 15 16 16 18 19 21 23 23 22 22 23 24 27 30 35 35 37 41
16 12 9 14 14 19 7 5 10 12 11 9 23 15 12 13 12 16 17 19 15 13 12 9 12 15 17 17 17 19 20 22 23 22 23 24 27 28 28 28 32 35 36 33
16 21 20 12 15 4 11 1 4 6 7 11 8 12 17 9 19 15 22 16 14 12 12 9 11 13 16 18 19 20 21 23 24 23 25 27 27 28 30 30 31 35 38 30
9 9 20 16 19 11 18 11 5 5 4 6 4 4 4 5 14 23 19 7 13 14 11 11 11 14 16 18 20 22 24 25 26 25 28 29 28 26 28 30 31 35 39 30
6 9 3 13 18 14 5 10 20 14 12 5 6 5 4 6 20 16 13 8 11 14 11 9 11 15 17 19 20 21 23 25 25 27 29 31 28 27 28 31 33 41 41 37
4 6 2 15 15 19 15 7 5 6 4 4 5 11 1 12 15 15 16 11 11 11 12 11 10 15 17 19 20 20 21 25 26 28 28 28 29 28 28 25 28 25 33 34
7 6 3 5 12 16 15 15 4 4 7 4 4 2 12 12 15 9 11 11 12 13 11 11 10 17 19 20 21 21 24 26 28 29 29 29 31 31 29 29 32 33 24 26
20 4 6 12 11 4 6 8 5 4 2 2 2 2 9 6 7 5 8 11 12 13 13 12 13 19 20 20 21 23 25 27 30 30 30 29 31 31 30 31 32 33 29 16
9 6 7 3 8 9 10 11 10 8 7 6 3 2 9 11 8 14 15 13 14 13 13 13 13 16 18 21 22 23 25 27 31 31 30 30 31 32 33 33 34 32 30 21
3 8 9 6 5 6 12 12 8 6 1 6 6 7 7 2 11 13 13 12 13 12 12 12 13 15 19 21 21 23 25 27 28 31 30 30 31 32 32 32 32 30 30 26
3 5 9 8 2 3 3 5 6 8 9 8 9 8 13 13 13 11 11 10 12 11 12 12 13 12 19 19 21 23 24 26 28 28 29 29 31 32 34 33 34 32 32 29
4 2 7 10 9 6 8 7 8 9 10 11 10 5 14 12 13 12 13 12 11 11 11 12 12 15 17 20 22 22 23 25 26 27 28 29 32 34 36 33 35 36 34 35
7 4 3 9 7 3 7 6 8 7 6 8 6 11 8 12 11 11 9 9 9 9 10 10 11 15 18 19 20 21 22 23 26 25 27 30 31 34 33 35 36 35 34 34
4 5 3 1 5 4 9 8 4 4 11 11 9 10 10 10 10 9 10 8 7 8 9 10 13 16 19 19 19 19 21 23 24 25 27 31 33 31 33 34 34 34 34 35
6 5 3 3 7 6 8 6 3 2 5 8 6 6 9 12 12 9 8 8 8 8 10 11 13 14 16 21 22 19 20 22 23 27 29 32 31 30 31 31 31 29 32 34
7 7 4 5 5 6 6 5 8 5 4 7 6 5 6 7 4 5 8 8 8 10 10 11 12 14 17 19 16 17 19 21 24 26 30 30 28 31 30 30 31 29 28 29
6 7 8 7 6 4 1 4 1 3 4 7 5 6 1 4 6 9 7 8 10 11 11 12 14 15 18 19 18 12 15 18 20 24 26 28 30 29 31 30 31 31 28 30
7 5 6 6 8 5 8 3 3 5 7 8 6 9 12 12 11 10 9 8 11 11 12 13 13 16 15 17 18 20 14 20 22 23 22 25 30 29 30 31 31 30 29 29
2 2 2 5 3 5 8 10 5 5 9 8 8 8 9 10 9 9 8 8 10 13 12 12 14 15 18 20 22 22 24 20 21 20 21 21 22 27 28 30 30 29 29 27
4 5 3 6 6 6 7 8 8 9 10 9 9 10 10 9 8 8 7 6 9 13 13 14 15 17 18 20 23 23 24 23 20 22 21 20 20 18 25 24 26 27 28 26
2 7 9 5 7 8 6 7 10 11 10 11 11 11 11 10 9 9 8 10 11 11 12 13 15 16 18 18 21 24 24 23 21 20 22 21 21 21 16 22 23 23 26 28
3 3 4 1 14 2 12 10 11 11 11 11 12 12 12 12 9 11 9 11 10 10 11 13 15 15 16 17 19 22 25 23 22 21 20 22 21 21 21 20 14 18 21 26

GFSCGP_925_spd_111.txt.gz
Wind_Speed
7 6 8 14 13 16 18 18 19 21 16 12 19 19 10 20 22 19 14 4 5 14 15 26 29 29 26 22 20 19 18 19 19 20 21 22 24 25 25 25 23 21 17 29
7 15 13 15 16 17 18 17 19 22 18 11 16 21 18 21 19 22 15 8 5 19 17 17 24 28 28 24 19 18 17 18 19 20 19 17 18 16 23 27 30 32 32 29
14 7 10 15 15 13 18 9 17 19 16 14 12 20 18 26 19 20 18 18 15 24 21 19 16 24 28 26 23 20 18 18 19 21 24 25 24 21 19 22 28 30 28 28
13 15 16 16 16 6 17 7 3 12 9 9 10 12 24 18 20 14 17 14 20 21 21 18 16 21 23 27 23 20 19 19 18 21 22 22 18 20 23 26 29 35 38 38
13 9 7 2 2 5 3 7 5 3 7 11 13 7 21 2 14 10 11 13 19 17 21 18 17 22 27 26 23 20 21 20 22 22 21 21 20 21 24 26 29 33 34 36
16 4 4 2 3 2 4 4 3 3 1 9 15 14 18 12 7 6 7 9 23 20 17 17 24 24 28 23 19 19 22 22 23 25 23 22 23 25 25 27 29 30 30 34
2 8 3 5 4 5 5 5 3 3 4 6 7 7 13 10 11 6 15 14 20 19 17 15 16 15 25 21 19 17 22 24 26 26 25 24 23 24 24 27 28 32 31 31
5 5 11 10 13 5 6 8 4 5 2 4 5 5 5 9 18 18 19 24 19 18 16 15 13 18 20 19 20 21 21 24 24 25 26 26 24 25 25 26 30 33 32 34
5 6 5 8 6 10 3 6 2 6 5 4 5 4 7 13 8 19 19 20 18 17 15 13 17 21 21 19 21 23 23 23 26 25 25 26 27 27 28 30 31 31 31 33
2 2 4 5 7 8 7 6 2 2 3 4 4 1 5 15 12 16 16 16 17 17 14 12 15 20 20 21 21 23 24 23 26 26 26 26 28 29 29 29 29 31 31 32
7 4 1 2 5 11 7 9 1 3 3 2 3 3 1 8 9 12 13 15 14 15 13 13 14 17 19 21 21 21 24 25 27 28 27 28 30 30 30 28 28 30 31 30
4 1 5 8 3 7 9 17 14 3 2 2 4 2 4 7 1 8 14 16 14 16 11 10 14 17 17 20 22 23 25 25 26 27 28 28 29 29 28 28 29 30 31 30
7 3 3 1 3 3 5 4 5 6 3 4 2 2 4 9 6 14 14 13 12 12 10 10 13 17 20 20 21 21 22 24 26 27 28 29 29 30 29 30 31 30 33 33
2 2 4 4 3 1 3 10 10 6 3 1 3 5 3 10 11 12 12 12 12 13 14 13 12 16 19 20 20 21 23 25 27 28 29 29 30 30 29 29 31 32 34 35
2 3 3 3 6 6 8 3 5 8 5 5 4 8 9 12 11 11 12 12 14 15 15 14 13 13 16 18 20 22 24 26 27 26 27 28 29 28 29 31 32 33 35 35
1 3 0 3 8 4 5 6 5 4 5 1 14 10 10 10 10 12 10 12 12 11 11 10 11 17 17 20 21 22 24 25 24 24 26 28 27 28 30 31 34 36 37 34
6 3 3 3 7 3 3 2 3 9 13 4 4 8 11 10 10 10 9 10 10 9 10 11 12 17 19 19 20 21 23 23 25 25 26 26 25 28 30 31 33 34 36 34
1 5 2 1 5 4 4 6 9 12 10 10 11 10 11 11 10 10 10 9 10 10 10 10 13 15 19 22 21 23 24 22 23 24 24 25 28 30 31 33 34 33 31 33
8 3 2 3 3 6 6 3 2 4 4 6 6 11 13 12 12 10 9 9 8 7 10 11 12 15 17 18 20 17 21 21 23 25 25 27 29 29 31 32 33 32 33 35
5 3 3 1 3 5 3 7 7 3 2 6 6 4 4 7 2 2 8 8 7 10 11 11 14 17 19 21 20 17 16 19 19 22 26 25 27 30 31 32 31 29 29 31
3 1 3 2 2 2 1 6 3 4 3 7 4 3 5 4 4 10 7 6 8 10 12 13 15 15 17 18 21 18 13 16 20 18 25 32 30 30 34 31 30 29 29 30
4 5 3 3 2 4 6 1 3 6 7 9 8 9 12 13 11 9 7 5 9 10 11 13 14 15 17 20 20 21 18 21 19 19 20 27 32 30 33 33 32 30 28 28
1 4 4 2 2 5 7 7 3 8 10 7 8 10 11 11 10 7 6 6 10 11 11 12 13 16 20 22 24 21 24 18 23 25 24 22 27 32 28 29 30 31 30 28
3 4 4 4 5 6 7 7 10 10 11 10 9 11 10 10 7 7 6 7 10 11 14 16 17 17 18 19 21 23 24 23 21 24 25 25 24 24 28 26 25 27 29 28
4 5 7 5 8 9 8 7 10 11 11 12 10 11 11 10 8 8 8 8 12 15 16 17 15 14 14 16 21 23 24 24 20 20 23 24 24 24 20 22 24 24 27 29
3 5 4 3 14 4 11 12 12 11 12 12 12 12 13 13 10 12 10 12 13 16 16 16 15 15 15 16 20 22 22 20 21 19 20 24 24 24 22 23 18 16 21 26

GFSCGP_925_spd_114.txt.gz
Wind_Speed
5 4 9 16 9 8 4 9 17 14 6 8 9 23 19 13 11 18 18 14 11 12 11 18 23 28 32 31 30 27 24 24 23 24 25 27 26 27 22 22 23 23 22 19
2 12 12 8 8 12 13 15 17 20 8 6 9 22 22 23 17 17 16 14 10 13 7 13 22 27 30 31 29 27 25 22 21 21 19 14 23 19 24 22 24 23 23 24
10 6 8 10 11 14 14 16 16 15 5 5 7 14 21 13 12 11 12 13 13 19 14 13 16 23 26 30 28 26 24 21 20 20 21 22 19 20 20 28 28 26 27 27
9 16 15 14 10 9 10 3 4 3 5 7 6 11 30 9 11 7 10 8 19 15 11 14 14 22 24 27 29 26 22 23 21 21 22 23 17 16 19 23 25 30 29 29
8 1 8 14 16 5 2 2 4 1 1 4 4 3 11 18 17 10 1 15 17 14 9 12 17 25 25 27 27 22 22 28 22 21 20 19 20 21 24 22 21 23 24 26
8 2 6 7 4 4 7 3 1 2 2 3 4 7 5 6 5 5 14 12 15 15 15 17 23 23 22 22 22 20 23 32 25 21 20 16 18 22 24 23 24 22 23 24
3 5 5 5 4 3 4 5 3 3 3 6 3 2 4 12 16 14 17 17 10 11 14 16 16 18 21 22 26 21 27 24 25 23 21 18 17 20 21 23 23 28 25 26
5 6 8 5 9 7 5 7 4 6 3 4 4 3 5 15 19 21 19 16 18 10 15 15 16 18 19 23 26 23 20 20 25 24 22 19 20 21 22 23 24 26 25 27
5 5 2 6 4 8 5 4 2 2 3 1 3 3 11 11 12 14 14 15 13 14 11 15 17 20 23 23 19 20 21 22 24 26 24 23 22 23 24 26 25 25 26 28
6 6 4 3 5 2 6 7 3 2 4 4 3 4 2 1 2 9 8 9 8 7 14 13 14 21 21 17 18 21 20 19 18 21 23 24 24 25 25 25 25 27 30 31
5 5 4 6 8 10 4 4 2 3 2 2 2 2 2 4 6 7 8 10 8 12 11 11 13 15 16 17 19 21 24 23 25 25 25 25 25 24 25 25 27 28 29 31
2 4 7 12 4 9 10 11 10 3 4 2 2 2 5 7 5 11 10 9 11 14 13 13 18 19 19 19 19 21 23 22 23 22 21 22 23 25 26 26 27 30 30 29
6 3 2 2 4 1 7 8 11 10 3 5 3 2 10 7 13 10 10 10 11 12 12 11 14 16 18 18 18 19 21 23 24 22 22 23 26 27 27 29 30 31 31 30
6 4 5 4 3 4 5 8 9 9 3 3 6 7 6 14 11 10 10 10 9 11 10 9 9 12 13 15 17 18 20 23 23 21 23 25 26 27 28 29 32 32 31 31
6 5 5 7 3 4 5 2 8 12 12 7 6 9 10 8 10 9 9 9 9 9 9 10 10 11 14 15 16 18 21 21 20 22 24 26 26 27 29 30 30 31 33 33
3 2 2 2 11 3 4 3 2 2 2 8 15 10 10 11 10 7 7 7 8 10 10 10 11 14 14 17 17 17 18 21 20 22 25 25 25 27 27 31 33 32 32 33
6 4 3 3 7 5 5 2 5 5 7 6 6 6 10 9 8 7 8 8 8 8 8 8 9 14 15 15 18 18 18 20 23 24 26 26 27 28 30 30 30 33 34 35
6 5 1 2 6 4 2 5 8 14 6 6 13 12 9 11 10 9 7 7 7 6 5 6 9 11 14 15 15 15 19 22 27 28 27 28 28 27 28 29 30 33 30 31
6 4 2 3 4 3 4 4 5 4 3 3 8 12 14 12 11 9 7 6 5 6 6 7 9 10 13 15 14 15 20 22 24 26 25 26 27 28 28 29 27 28 30 31
8 4 3 3 4 6 3 3 4 4 1 5 5 12 14 12 3 4 8 7 6 10 9 9 12 15 19 21 19 18 17 20 21 21 23 28 25 29 29 29 26 28 30 29
5 3 7 2 2 0 1 4 2 4 4 6 4 3 7 6 2 10 7 5 9 11 12 14 15 16 18 20 20 21 21 23 20 16 26 29 29 27 28 27 31 31 29 28
9 6 3 3 2 5 2 0 5 5 4 7 5 4 10 13 12 9 7 5 8 11 14 13 15 16 17 19 20 21 22 22 21 23 21 26 29 26 28 28 27 30 29 29
1 5 5 2 2 2 3 4 7 5 9 7 9 8 12 12 10 7 5 4 12 14 13 12 13 14 18 20 20 19 21 19 20 21 22 21 23 27 26 24 26 28 28 27
2 3 4 4 4 5 7 8 8 10 9 11 12 11 10 12 8 7 5 7 11 14 14 13 14 14 15 18 19 20 18 15 17 20 22 22 21 20 23 22 23 26 27 24
3 5 7 4 7 8 6 7 11 11 12 12 10 10 10 11 9 9 8 10 14 15 14 14 12 12 15 17 18 18 17 16 15 17 19 19 19 20 19 20 21 24 28 26
1 5 4 4 12 4 11 11 13 12 11 10 12 11 12 12 10 12 9 12 14 14 14 16 15 14 12 14 16 16 20 18 16 14 16 20 21 23 22 21 19 19 24 25

GFSCGP_925_spd_117.txt.gz
Wind_Speed
5 4 9 17 8 5 2 4 5 5 9 8 15 23 20 6 7 16 19 11 7 7 7 17 21 18 17 18 20 21 21 19 16 13 10 7 17 11 14 13 16 16 16 17
1 8 10 4 5 7 9 12 13 6 10 7 10 23 19 6 8 14 16 6 7 7 8 12 17 23 19 19 19 22 23 22 21 19 16 12 12 9 12 15 17 19 21 21
7 6 9 8 6 8 11 9 10 14 2 5 5 13 7 14 6 8 9 7 8 12 12 11 15 19 20 21 20 21 21 21 23 22 19 15 10 16 18 24 23 23 24 24
6 10 10 6 5 10 9 7 6 4 5 2 3 8 15 9 11 14 12 17 15 13 13 12 13 18 21 18 21 24 24 24 25 23 22 20 16 9 14 23 24 25 24 25
8 3 7 7 12 6 9 5 3 1 1 2 5 2 6 9 10 10 10 14 14 15 13 12 12 16 21 22 18 23 27 29 26 24 22 17 15 13 14 16 22 22 22 24
7 1 6 8 4 4 6 3 3 4 3 2 6 7 3 7 8 12 9 14 15 16 14 14 18 16 19 22 18 25 23 28 26 27 23 21 19 19 19 18 19 20 22 24
3 15 6 5 4 3 3 4 2 3 1 5 1 2 3 6 10 19 15 15 16 14 15 14 15 20 19 18 23 19 21 21 23 26 24 23 20 17 17 17 19 22 22 21
5 4 8 6 12 7 7 7 4 5 3 3 4 4 2 4 9 13 13 12 10 11 10 11 15 17 18 16 15 18 19 19 23 25 22 20 17 17 16 18 20 20 21 23
4 4 3 5 4 10 4 4 2 3 2 1 4 4 4 5 5 7 8 8 9 7 5 8 10 15 17 19 22 24 23 21 25 22 21 20 20 21 21 20 18 20 21 23
5 5 5 4 4 4 6 8 3 1 3 5 4 4 5 7 4 4 4 4 4 6 8 9 12 16 17 20 20 25 24 24 23 22 22 20 19 19 21 20 21 23 23 25
6 6 3 5 6 9 3 3 1 4 4 4 2 4 5 9 9 9 6 6 4 5 7 8 10 11 14 15 17 19 20 19 20 20 20 19 22 22 21 22 23 24 26 26
4 2 4 12 1 4 11 10 7 5 5 3 3 5 7 10 11 9 8 9 8 6 6 6 9 9 11 13 19 20 21 21 20 20 21 23 24 22 23 25 26 28 27 28
7 3 2 3 4 3 7 9 12 5 2 6 5 3 7 8 12 8 8 7 7 7 7 7 8 8 8 13 16 18 19 19 18 20 22 23 23 24 25 25 26 27 29 29
6 4 6 8 3 1 4 13 14 10 4 5 7 8 13 11 14 10 9 7 6 6 7 8 8 13 17 20 19 19 18 17 19 21 22 23 24 23 26 26 27 28 29 29
4 6 5 5 5 2 4 13 14 15 12 8 6 10 15 15 14 12 10 8 6 6 6 8 8 11 12 11 12 14 16 18 19 22 22 23 23 24 25 25 26 28 29 30
2 1 2 4 10 9 10 14 8 13 15 13 6 7 11 12 13 10 9 7 6 5 5 7 6 7 9 12 12 14 18 21 21 20 21 21 23 24 25 25 29 27 31 32
6 6 4 7 4 7 7 10 11 3 1 6 7 7 16 14 13 10 8 7 7 6 5 5 4 6 8 10 12 14 17 18 21 22 22 25 27 27 29 29 30 32 32 31
6 6 3 1 3 7 1 3 4 6 2 3 8 16 14 11 11 8 6 8 7 5 5 4 4 6 9 8 11 14 17 20 20 21 21 24 26 28 29 30 30 31 30 30
5 4 3 3 4 2 2 4 5 4 4 0 11 14 15 13 11 5 6 5 5 5 6 7 8 8 12 15 14 12 15 17 21 22 24 24 26 27 31 31 29 29 28 30
7 5 3 2 3 6 5 3 5 3 3 8 10 16 17 11 3 4 7 6 5 9 9 11 12 14 17 16 17 17 17 17 17 23 23 23 23 28 30 30 31 31 31 30
5 2 6 5 4 4 2 5 3 5 5 5 9 14 15 5 2 10 10 6 11 10 12 11 13 15 13 13 15 17 19 18 18 18 24 26 26 26 29 26 28 29 27 28
8 7 4 4 3 6 2 3 6 4 4 5 4 4 10 12 12 11 9 7 11 13 12 11 12 11 11 12 14 16 18 17 18 20 22 24 26 25 27 28 28 27 27 28
2 6 4 3 4 1 2 2 3 4 5 3 5 7 14 16 12 10 7 6 12 14 11 9 10 10 13 13 14 14 15 16 19 21 22 21 21 23 24 25 27 27 28 29
1 2 4 3 3 3 4 5 5 6 8 8 11 12 13 15 12 10 9 7 11 13 12 12 13 11 12 13 12 14 15 16 18 19 19 20 20 19 20 23 24 26 27 26
2 6 7 3 4 6 4 5 10 10 12 12 11 11 12 14 10 11 9 9 13 14 12 14 12 10 9 11 16 16 15 15 14 17 19 18 19 19 20 22 25 26 29 28
3 5 4 5 11 3 9 10 13 14 13 12 13 11 11 15 11 14 10 12 13 14 13 14 12 10 10 13 16 17 16 15 15 15 17 17 17 20 20 19 23 22 23 23

GFSCGP_925_spd_120.txt.gz
Wind_Speed
4 4 8 13 7 4 4 3 3 4 10 7 11 13 9 9 8 11 12 8 4 11 13 24 27 28 26 26 24 24 21 21 19 12 5 2 5 8 8 8 7 7 9 10
4 5 10 4 5 5 6 2 6 6 7 6 10 10 9 6 6 10 13 13 9 11 14 20 26 28 29 29 30 28 25 24 21 20 14 6 4 5 6 11 10 12 11 11
6 4 5 7 4 6 5 5 4 7 5 5 8 5 5 5 15 15 17 16 17 14 14 16 22 25 26 28 27 27 28 28 28 21 20 12 4 2 6 16 15 17 14 14
5 5 4 3 5 6 3 6 6 5 1 3 3 6 4 3 12 14 15 17 15 16 16 16 21 24 27 24 24 26 24 31 26 26 21 18 12 9 13 15 17 17 16 16
6 3 4 6 11 5 7 4 4 4 3 2 2 2 3 6 10 12 14 15 16 16 16 16 20 21 22 24 23 23 25 30 25 27 23 20 14 16 15 17 18 17 19 18
7 1 6 7 2 6 5 4 3 3 3 4 8 8 4 4 3 9 10 11 10 11 10 12 14 16 17 20 23 24 25 25 31 30 26 24 21 19 18 18 19 21 19 18
1 8 4 3 3 3 3 5 3 3 1 5 1 2 2 3 4 8 9 7 6 6 6 5 9 14 14 19 20 22 26 25 25 28 25 25 21 18 15 18 19 21 21 21
6 3 7 5 16 7 5 8 5 5 3 3 2 5 2 6 7 6 6 6 5 5 5 5 6 6 10 14 20 23 24 26 25 25 23 21 21 19 18 20 20 18 19 21
5 4 2 4 3 9 4 6 2 1 1 1 4 1 3 8 7 6 6 4 3 4 6 7 9 10 11 13 14 18 18 17 18 17 18 20 20 20 23 23 21 21 21 20
5 2 5 4 5 4 6 7 3 1 3 5 4 4 5 14 12 11 9 6 3 5 6 6 8 12 14 13 14 17 15 15 16 18 19 19 21 24 24 24 24 23 22 23
5 5 2 6 6 9 3 3 2 3 3 4 2 5 5 17 16 14 10 7 6 4 4 5 6 9 11 13 16 17 17 16 18 18 18 18 22 22 21 20 21 22 22 23
6 5 9 13 3 5 3 5 6 4 4 4 3 5 4 10 12 12 9 8 7 6 3 2 6 10 12 15 16 15 17 18 20 18 19 22 22 21 22 25 24 24 22 22
6 1 1 5 3 2 6 7 10 4 2 15 5 4 7 12 11 12 12 10 7 5 5 5 7 10 11 12 12 13 15 16 19 18 19 20 22 24 26 24 25 25 25 25
6 5 6 8 4 3 3 7 10 12 5 4 11 7 12 13 14 13 12 9 6 5 5 5 6 9 10 12 13 15 16 18 18 19 20 21 22 24 25 26 25 27 27 27
4 8 5 5 5 5 5 6 7 16 17 9 6 10 15 16 16 13 12 10 7 6 6 5 5 7 9 11 14 15 17 19 18 20 22 25 24 24 24 23 25 25 26 27
2 3 4 4 7 10 9 11 9 12 10 7 7 6 3 13 12 11 10 9 7 6 7 5 6 8 10 12 13 15 18 19 20 21 23 23 23 23 24 25 27 30 31 30
5 5 4 6 4 2 8 17 13 6 4 5 13 7 12 13 14 12 10 9 7 7 6 5 5 7 8 11 12 13 16 18 19 21 21 22 21 23 25 27 29 32 32 30
6 5 3 2 3 10 1 4 5 8 4 4 3 14 15 13 10 10 8 9 8 8 7 5 6 7 7 9 10 11 16 18 17 19 19 22 23 25 27 29 31 32 30 30
7 5 3 3 5 4 3 4 5 7 6 5 11 12 14 15 10 4 7 6 5 6 7 9 8 8 11 13 11 12 13 15 16 17 19 19 23 25 27 29 29 29 30 33
5 4 5 3 4 6 5 1 3 2 6 9 12 16 17 13 7 4 8 9 10 15 14 14 12 13 14 13 12 13 13 12 15 19 18 19 20 26 27 26 27 29 29 30
4 3 8 4 4 6 4 5 4 5 5 10 14 16 15 7 3 9 12 8 15 16 16 13 13 13 11 11 12 14 13 13 12 15 19 21 22 23 27 28 31 29 27 27
8 7 4 3 3 7 4 3 6 3 2 7 8 14 10 10 14 14 12 12 16 15 15 13 13 11 9 9 12 14 14 12 13 14 16 19 22 24 27 29 26 26 24 26
4 6 5 7 5 1 2 1 1 3 4 3 7 8 15 15 13 14 12 11 14 17 15 12 13 11 11 9 10 11 11 11 12 16 17 19 19 21 24 25 26 25 25 26
1 2 3 3 2 3 3 3 2 3 4 5 7 13 14 15 12 11 10 9 13 16 15 13 14 12 10 9 10 11 11 11 14 16 17 17 19 19 20 22 23 25 26 25
3 6 5 1 2 4 4 3 5 8 11 11 9 11 14 15 12 12 10 11 15 16 14 14 14 11 11 12 12 10 10 11 13 15 16 17 15 14 16 23 24 24 28 27
3 5 5 5 9 4 4 11 12 12 11 11 14 12 9 15 13 15 10 13 15 17 16 15 13 12 11 12 12 12 12 12 13 14 13 13 14 14 16 17 21 21 21 22

GFSCGP_925_spd_123.txt.gz
Wind_Speed
2 5 12 13 9 3 3 2 6 6 9 6 5 12 13 8 12 14 14 13 12 13 14 20 23 24 24 26 26 26 26 26 22 19 13 8 10 10 11 11 11 8 7 5
4 10 12 6 8 8 7 7 12 7 5 6 8 15 5 10 9 10 11 12 11 11 14 20 23 24 24 24 25 26 24 23 23 17 16 10 11 8 10 14 13 14 13 10
6 1 7 11 7 7 4 10 7 8 6 4 6 1 4 7 10 10 12 12 12 12 11 13 18 22 22 23 22 22 22 21 21 18 15 16 11 15 15 17 16 17 15 14
6 2 6 8 5 7 5 10 9 7 5 4 5 5 7 3 8 10 9 9 9 9 9 10 12 15 18 18 18 20 19 20 20 19 19 19 15 18 20 18 17 16 15 15
4 5 5 7 8 7 4 5 5 1 3 4 4 5 4 1 1 4 3 5 6 5 5 5 7 7 9 13 15 18 17 18 19 19 20 17 21 17 18 17 16 15 13 14
2 0 4 4 3 7 6 4 4 3 0 6 7 8 6 5 4 4 4 4 3 3 5 8 10 12 15 17 18 15 16 17 22 24 24 24 17 15 17 21 19 20 19 17
1 6 2 3 4 2 6 5 2 2 3 5 3 5 10 10 7 6 7 5 2 1 3 7 12 15 16 19 21 19 18 17 18 19 18 19 16 15 13 17 21 21 19 19
8 4 12 8 16 7 9 10 5 6 4 1 1 6 2 6 8 7 7 6 4 4 5 5 7 9 12 14 16 17 18 19 19 17 16 16 14 15 14 17 18 17 17 17
6 4 2 3 4 13 6 6 8 6 3 4 5 5 4 10 9 10 9 8 5 2 2 6 8 10 12 14 16 16 16 16 18 18 16 16 17 18 19 17 16 16 16 17
5 2 5 5 6 3 5 10 3 3 5 6 6 7 8 14 13 13 12 9 6 4 1 4 7 9 10 12 12 15 16 15 15 14 14 14 14 15 17 16 17 17 19 20
5 3 3 8 9 13 5 5 2 2 2 4 6 6 5 17 19 19 14 10 8 6 3 3 6 9 9 11 13 14 15 15 15 15 15 15 16 19 16 18 18 20 20 21
7 3 8 15 2 8 7 10 12 5 5 3 2 10 1 12 17 17 14 12 9 6 4 4 6 8 9 11 12 13 13 14 14 13 13 14 14 15 17 18 20 21 22 21
6 3 5 5 1 2 7 8 9 6 3 14 6 9 4 8 13 15 15 13 10 8 5 4 5 6 8 9 10 12 12 12 12 13 13 14 16 17 18 18 18 19 20 21
3 6 8 10 3 4 5 11 14 14 6 9 16 21 9 11 12 13 14 13 12 8 5 4 4 7 8 9 11 11 12 12 12 13 14 15 17 17 18 17 18 20 20 21
6 11 7 13 10 7 8 12 13 15 17 11 22 16 14 18 17 16 14 13 12 9 6 5 5 6 7 9 10 11 11 12 12 13 14 15 15 15 17 18 19 19 20 23
4 10 6 14 9 13 14 15 14 16 18 16 18 21 8 14 12 16 17 16 14 11 8 7 6 6 7 8 9 11 11 12 12 15 16 17 17 18 20 19 20 21 21 23
3 5 6 12 6 7 10 19 18 14 16 15 16 19 10 11 19 20 19 16 14 13 10 8 7 6 7 8 8 11 11 11 14 16 17 18 18 20 21 20 21 22 23 20
7 5 3 7 5 12 5 2 6 14 17 15 11 7 17 14 10 12 14 15 14 13 12 9 9 7 6 6 7 6 11 12 14 15 16 18 17 17 18 20 22 21 20 22
16 12 9 7 8 6 7 6 7 7 8 12 12 12 13 15 13 6 10 11 13 13 14 12 10 9 8 9 8 9 9 13 13 14 15 17 18 18 18 21 19 19 20 22
14 16 14 5 8 8 3 2 5 4 9 13 15 18 20 16 9 7 12 13 15 17 15 14 13 12 13 10 10 12 11 12 14 14 15 14 16 18 20 18 19 19 20 20
5 4 9 4 3 5 5 7 5 5 4 8 13 16 18 11 0 14 16 14 19 18 17 15 13 15 14 12 14 14 12 11 10 11 13 14 13 16 17 18 19 20 21 19
9 7 4 3 6 10 9 7 8 1 2 7 12 14 11 10 15 17 16 15 18 18 17 14 14 12 10 10 12 13 13 11 11 12 12 14 15 15 17 20 21 20 20 22
6 5 6 8 4 1 1 2 2 2 4 7 12 12 15 16 16 17 15 14 16 17 15 13 14 13 10 9 9 10 9 8 9 10 12 12 13 15 17 20 19 19 19 22
3 2 3 3 4 3 4 1 3 2 5 9 12 17 16 17 17 16 13 12 15 16 15 14 14 13 11 9 9 9 8 8 8 8 9 9 12 14 16 16 17 19 19 19
2 7 5 2 1 0 7 8 8 8 10 12 13 16 16 18 16 18 14 14 15 15 15 14 14 13 12 9 8 8 7 7 8 8 9 9 10 11 11 13 16 16 19 20
5 5 5 5 6 3 1 13 13 13 12 14 16 14 15 18 17 20 14 18 18 17 16 16 14 14 12 10 10 9 7 7 7 8 8 9 9 8 9 8 11 16 15 16

GFSCGP_925_spd_126.txt.gz
Wind_Speed
13 8 13 11 12 8 6 8 11 10 6 8 8 11 11 5 3 3 7 8 8 9 10 12 13 13 13 15 16 18 19 21 20 18 15 8 11 9 9 11 12 12 12 12
7 14 13 1 5 8 9 11 13 8 2 7 10 14 3 2 4 5 5 6 5 5 7 10 12 13 14 14 15 17 19 19 19 15 13 10 8 5 7 9 11 14 14 13
13 3 3 12 9 11 9 11 10 10 9 13 9 18 9 8 6 5 4 4 4 5 6 8 12 14 16 18 18 17 17 17 17 16 15 12 7 6 8 10 11 14 14 13
9 7 8 12 13 10 11 4 7 7 6 5 3 6 11 12 7 5 2 1 3 3 5 6 9 13 16 17 16 16 16 16 16 16 14 13 11 9 11 11 11 12 14 13
5 10 13 12 10 10 4 3 4 5 8 8 12 6 2 11 14 10 5 2 0 3 5 7 10 11 14 15 15 15 15 16 16 15 15 12 10 12 9 12 11 14 14 14
5 1 6 4 4 10 7 6 4 5 5 7 12 12 5 10 14 10 7 5 5 3 1 6 7 8 10 11 13 12 13 14 16 16 16 15 14 10 10 12 11 15 14 15
13 13 6 9 9 7 11 7 3 5 5 6 2 8 14 9 8 8 9 8 6 3 2 3 5 7 10 13 14 13 13 14 15 16 16 17 17 16 16 18 18 16 17 17
10 7 19 15 18 7 15 12 6 6 7 7 3 8 1 4 8 6 7 9 8 6 3 2 5 7 9 11 12 13 14 14 16 15 16 15 17 16 16 15 15 13 14 15
7 5 8 4 6 12 7 9 13 15 12 9 12 14 7 9 8 10 12 12 10 7 5 1 2 4 6 9 9 12 13 14 15 15 14 16 17 16 15 14 12 12 12 14
4 5 9 7 8 10 10 10 4 5 7 14 11 14 11 12 14 15 15 14 12 9 6 2 2 4 5 7 8 10 11 13 13 13 14 14 15 15 15 14 14 14 13 13
7 7 8 9 12 15 9 11 8 5 9 10 14 10 5 11 15 18 17 15 13 10 7 4 1 2 4 6 7 8 10 11 12 12 13 13 14 15 14 13 14 14 12 14
12 6 13 17 12 13 18 17 18 11 12 7 9 16 2 3 9 13 15 13 12 10 7 4 2 2 4 5 6 8 9 10 12 12 12 13 14 14 13 14 14 14 13 14
8 7 11 16 7 10 14 20 18 19 15 16 9 7 3 4 8 11 13 13 13 10 8 5 4 3 3 4 6 7 9 10 10 11 11 12 13 14 14 15 14 14 16 17
0 8 11 13 5 2 4 10 14 17 10 15 19 19 15 9 10 13 14 16 15 13 10 6 5 5 4 5 6 6 8 9 9 10 11 12 13 13 13 13 14 15 15 18
6 14 15 19 18 17 17 18 18 21 21 18 21 21 23 16 12 16 17 16 15 15 12 8 6 6 6 6 6 6 8 9 9 10 10 12 12 12 12 13 14 14 17 18
5 11 13 21 19 19 21 24 25 24 25 24 23 29 20 18 8 15 18 19 17 15 11 10 9 9 8 6 7 7 8 8 9 10 10 11 12 13 13 14 15 15 15 18
7 7 10 18 16 17 16 25 25 27 23 22 23 26 20 12 13 19 20 19 19 16 14 12 11 10 9 8 8 8 8 8 9 10 10 11 11 12 13 13 14 15 16 17
13 11 9 12 7 15 15 6 11 17 20 23 23 22 16 14 13 14 17 19 17 16 15 13 14 12 10 10 8 8 8 9 9 11 12 12 11 12 12 15 16 16 15 17
18 16 7 9 14 19 21 9 5 9 18 16 18 18 10 5 10 5 11 14 14 15 17 15 15 13 11 9 9 9 10 9 11 11 11 12 12 13 14 15 16 16 16 17
18 19 14 15 17 20 17 15 7 5 12 13 16 14 15 15 9 8 15 16 15 20 20 18 15 13 12 10 10 11 10 11 11 10 10 11 13 14 15 14 15 15 14 16
4 7 17 16 17 13 9 6 9 8 5 1 7 10 16 14 3 19 16 15 21 21 21 19 16 14 13 12 13 12 11 11 9 10 11 12 12 13 13 13 14 14 16 16
11 7 7 13 10 11 10 11 8 0 1 4 6 12 13 10 15 16 16 16 19 21 21 18 17 15 14 13 14 13 12 9 9 9 10 12 11 12 13 13 14 16 16 17
9 11 8 8 3 2 15 0 4 2 2 6 10 11 14 16 16 17 16 17 20 21 20 18 17 16 13 12 12 13 11 10 9 9 10 10 10 11 12 14 14 15 16 16
9 7 6 1 7 7 10 7 5 4 4 8 12 15 15 15 17 17 16 15 17 19 19 18 18 16 15 12 12 11 10 9 8 8 8 8 9 10 12 12 14 16 16 15
5 7 9 9 5 5 11 12 10 8 9 11 12 15 16 18 17 18 16 16 19 18 17 17 16 16 15 14 12 11 10 9 8 8 7 6 7 8 10 13 14 13 15 15
6 7 9 7 2 6 2 10 11 11 12 14 16 15 16 18 18 19 15 20 20 19 18 16 16 17 15 14 13 10 9 8 8 7 6 6 7 7 7 6 8 12 11 13

GFSCGP_925_spd_129.txt.gz
Wind_Speed
15 11 14 19 17 17 10 11 13 12 7 5 14 18 12 10 2 7 4 1 3 4 5 6 8 10 11 13 14 16 18 19 18 16 14 11 11 11 11 10 11 12 13 14
9 17 18 12 5 10 12 14 15 14 7 5 16 18 14 5 7 5 4 6 3 2 3 6 8 10 12 13 15 15 17 18 18 16 15 11 10 8 9 11 10 12 13 12
17 1 10 12 11 14 15 16 14 13 7 12 19 19 25 11 7 8 7 2 2 2 4 5 7 10 11 13 13 13 14 15 16 17 14 14 10 6 11 11 13 13 13 13
15 19 10 12 16 14 15 14 10 10 10 9 6 9 2 16 14 14 11 7 3 2 4 5 9 9 10 10 10 11 12 14 15 16 15 15 13 13 13 12 14 13 12 13
12 13 15 18 18 13 13 2 7 10 11 13 17 11 13 13 17 14 13 9 5 4 3 5 6 7 9 11 12 12 11 12 13 14 15 14 14 13 13 12 14 13 12 11
19 2 12 15 9 10 2 7 9 10 11 12 19 18 11 11 12 13 10 9 8 6 3 3 3 5 8 10 11 12 14 13 15 15 13 13 13 12 12 14 12 14 14 14
15 16 11 7 11 10 13 11 6 10 9 10 3 7 12 8 9 4 10 8 8 7 4 2 2 3 5 8 10 11 11 12 13 13 13 13 13 12 11 12 13 13 13 14
16 16 21 17 16 11 19 15 8 10 10 10 8 7 3 9 11 8 5 8 9 7 5 4 2 3 5 6 9 10 11 11 12 12 12 12 13 12 11 11 12 12 13 15
15 15 21 11 17 17 12 16 14 16 16 12 12 16 10 9 12 10 10 10 10 9 8 6 3 2 3 6 7 8 10 10 11 11 11 11 12 12 12 13 11 10 13 15
7 9 12 9 12 13 12 8 7 8 7 17 15 16 10 16 13 12 13 13 11 10 9 7 3 2 3 4 5 7 8 9 9 9 10 11 12 12 13 13 14 15 15 16
10 8 10 11 14 14 12 11 10 10 14 12 14 12 6 11 12 14 14 14 15 13 11 7 6 4 4 3 4 5 6 6 7 8 9 10 11 12 13 15 15 15 16 17
16 6 12 16 12 17 18 21 19 11 17 12 13 17 2 7 7 11 14 16 17 15 12 9 7 5 3 4 4 4 4 5 6 6 8 9 10 11 12 12 13 14 15 16
7 6 9 14 13 9 15 21 19 20 16 23 14 10 4 2 4 8 10 16 17 16 14 11 9 7 5 4 4 3 3 3 4 5 7 8 10 11 12 12 12 13 14 15
4 9 12 15 16 2 6 19 19 21 15 18 20 24 21 8 9 10 8 16 17 16 15 12 10 9 6 5 4 3 3 4 4 5 7 9 10 11 12 12 13 14 15 15
4 9 16 21 23 11 11 13 18 18 17 12 18 19 21 17 12 18 13 15 15 17 16 14 11 10 9 7 6 4 3 5 4 6 7 9 9 11 12 12 13 13 14 15
11 9 17 22 23 22 22 22 26 22 23 23 23 25 23 22 20 16 17 16 17 17 16 14 12 13 11 9 8 6 5 6 6 6 7 8 10 11 12 12 12 13 14 15
16 13 15 21 20 20 18 29 23 25 26 24 23 24 24 20 17 13 12 18 17 17 16 15 13 14 13 11 9 8 7 7 7 7 8 9 10 11 12 12 12 14 14 14
8 9 6 6 11 13 13 17 25 21 24 23 24 22 22 18 14 9 9 16 15 15 14 14 16 16 15 13 10 9 8 8 8 9 10 10 10 10 10 12 13 13 13 14
20 15 8 7 12 16 19 15 6 11 17 17 19 19 18 13 2 4 5 13 14 15 17 17 18 18 16 14 11 10 10 9 9 10 11 11 11 11 11 13 13 13 12 13
20 18 13 12 14 17 19 20 13 10 14 16 20 19 16 8 8 7 9 13 16 22 22 18 18 17 15 14 13 12 11 10 10 9 10 10 11 11 12 12 12 12 12 13
5 9 16 15 14 16 24 24 2 11 14 7 6 5 5 10 3 13 15 14 23 23 21 21 18 16 15 14 14 13 13 12 11 10 9 10 10 11 10 11 11 11 10 10
9 7 10 13 17 18 14 2 12 5 0 1 2 1 8 12 14 12 14 16 18 21 22 20 19 18 17 16 16 15 14 12 11 11 10 10 10 10 10 9 9 10 9 11
16 13 11 11 6 6 6 9 8 3 3 2 3 6 14 15 14 14 14 14 17 21 22 21 20 19 18 17 16 15 15 13 12 12 11 10 10 9 9 11 10 10 11 13
18 14 9 8 11 14 9 8 6 6 4 4 7 11 13 14 15 14 13 13 16 20 22 21 20 18 17 15 14 15 15 14 12 11 10 9 9 10 9 10 11 13 14 13
9 8 9 14 16 5 8 13 10 6 4 7 9 13 14 16 16 17 14 13 18 19 20 21 19 18 17 16 15 14 13 12 12 10 9 9 8 8 11 12 12 12 14 15
12 13 10 12 3 10 4 9 11 10 9 10 13 14 14 15 17 17 13 20 21 19 19 18 19 18 18 16 15 13 12 11 11 11 9 7 7 6 6 7 9 11 11 11

GFSCGP_925_spd_132.txt.gz
Wind_Speed
14 11 16 21 20 20 18 12 12 10 10 15 14 13 15 16 16 10 8 8 8 6 7 5 5 8 10 14 15 17 18 20 20 17 16 15 14 11 14 13 15 18 18 18
16 19 20 20 21 21 21 17 15 15 14 14 9 13 16 18 14 10 9 10 7 8 9 7 5 8 11 11 14 15 17 18 20 19 16 14 11 8 11 12 17 17 17 17
21 13 22 21 21 13 15 15 15 17 15 6 8 17 20 19 12 11 4 7 8 5 4 6 8 9 8 8 10 11 14 16 19 19 17 17 13 12 15 15 16 16 17 17
24 22 12 12 19 14 18 17 17 17 12 12 13 12 12 10 14 13 12 11 10 9 6 7 6 5 6 8 9 9 10 13 15 16 17 17 16 13 15 16 13 15 15 16
18 18 19 20 20 17 16 9 7 7 11 14 16 12 14 18 16 18 16 14 11 9 6 7 5 5 7 8 9 11 11 14 14 15 15 15 14 13 13 15 14 14 14 14
21 15 16 18 19 18 13 5 6 8 10 12 15 14 11 12 15 21 19 16 14 10 9 7 6 6 6 8 9 9 10 12 13 13 14 14 14 14 14 15 14 15 14 16
21 23 14 10 14 14 12 8 5 8 8 10 13 14 13 3 13 17 20 17 15 12 10 8 7 7 6 9 9 9 10 11 12 12 12 13 13 12 12 14 14 15 15 16
18 19 23 17 20 15 18 18 6 9 9 13 8 7 5 8 13 14 18 17 16 12 9 7 7 5 6 10 8 9 9 10 11 11 11 12 12 11 12 12 13 13 15 15
14 24 15 23 19 19 18 20 14 14 12 7 8 9 8 10 11 11 12 16 14 12 11 9 9 7 6 8 7 8 7 9 9 9 9 10 11 12 12 12 12 13 15 14
14 15 22 24 17 23 18 15 12 6 6 10 12 14 9 16 12 12 12 13 14 13 12 12 12 11 9 7 8 7 7 7 7 8 9 9 11 11 11 11 13 13 14 16
19 12 8 16 15 19 12 15 9 9 9 3 7 4 3 10 13 13 13 13 14 14 14 12 12 11 10 9 9 7 6 6 7 7 8 9 9 10 10 11 12 12 13 15
21 7 10 21 15 16 16 18 15 7 10 7 9 14 13 13 13 13 13 15 16 14 13 12 15 15 12 9 8 8 6 6 6 6 6 7 7 9 10 10 11 12 14 16
15 7 9 14 16 18 18 16 15 16 10 15 13 15 8 3 11 12 12 15 16 15 15 13 14 14 12 10 8 8 6 5 5 6 7 8 8 11 11 11 12 14 16 17
5 5 11 10 11 3 6 14 13 11 13 18 18 18 16 9 3 9 9 5 15 15 15 13 11 13 12 10 9 9 8 5 6 7 8 8 9 10 10 11 12 14 16 17
4 5 9 13 14 11 6 9 12 15 15 14 19 17 18 15 11 12 14 15 18 16 16 13 11 13 14 12 10 9 9 8 7 8 8 8 9 10 11 12 13 14 16 18
3 3 8 14 14 14 11 11 22 21 20 16 21 19 14 14 11 16 17 15 17 16 15 14 12 17 15 13 12 10 10 9 9 9 9 9 10 10 12 12 14 15 17 18
6 6 7 16 16 15 15 26 23 25 22 16 19 16 15 16 17 14 15 12 17 16 16 14 13 16 16 13 12 11 11 11 11 11 10 10 10 11 12 12 13 15 17 18
4 3 4 9 12 20 16 16 20 21 19 19 18 18 17 12 9 8 8 19 18 17 17 15 18 19 17 13 13 12 12 13 12 11 11 10 10 12 12 12 14 14 16 18
15 12 6 5 6 9 13 13 9 8 7 15 13 14 12 11 5 5 9 14 14 15 13 21 25 23 19 15 14 13 13 14 12 12 12 11 11 13 13 14 13 13 14 15
20 16 10 4 3 4 9 13 12 9 6 13 14 14 14 12 7 3 12 17 18 24 26 27 27 24 21 16 9 13 14 15 14 13 13 12 12 14 13 12 13 13 14 13
9 11 16 13 10 8 16 17 16 14 9 7 6 8 9 3 5 12 16 15 21 25 27 29 26 22 22 19 15 15 16 15 13 12 13 13 12 12 12 13 12 13 12 13
6 4 7 9 10 15 6 9 13 5 3 4 2 6 11 13 11 12 14 14 15 21 24 24 24 22 18 17 18 19 18 15 15 14 14 13 12 11 11 11 12 13 11 13
13 9 5 5 3 2 5 5 7 4 3 1 1 10 13 13 12 12 13 13 15 21 21 21 21 21 19 19 18 18 17 15 17 15 14 12 13 13 12 13 14 14 14 14
16 15 12 12 13 13 10 11 5 4 3 0 2 11 13 13 13 13 12 12 13 19 20 21 22 21 21 21 20 18 18 17 15 14 14 13 12 12 14 16 15 16 16 14
7 9 6 7 10 18 12 6 7 9 4 4 6 13 14 14 13 14 13 13 17 18 20 20 20 20 21 21 20 20 20 18 16 16 15 15 15 13 13 16 14 16 16 13
4 11 9 10 6 6 7 5 19 5 6 7 11 12 12 13 13 13 12 18 19 18 19 18 16 18 18 18 18 17 17 16 16 15 14 13 12 17 14 16 14 11 12 12

GFSCGP_925_spd_135.txt.gz
Wind_Speed
7 4 9 19 14 8 9 11 7 6 8 9 14 9 9 9 8 9 14 15 14 14 16 20 18 15 14 13 16 17 18 17 18 22 20 17 17 16 19 24 24 24 22 22
6 16 17 12 11 14 17 18 12 9 4 5 10 11 9 7 6 14 13 15 16 14 12 17 22 17 11 8 9 12 14 17 17 17 15 14 18 17 21 20 24 26 22 20
16 8 18 16 16 18 16 17 10 9 7 2 5 4 6 6 4 11 13 14 15 16 14 13 17 14 9 8 8 8 10 14 17 16 15 12 11 14 18 20 19 19 21 19
13 18 23 18 19 15 12 5 6 5 5 8 2 7 6 6 15 11 15 15 14 15 14 13 17 13 11 9 7 8 10 13 16 17 19 19 18 16 16 19 16 16 18 21
9 12 16 22 8 17 9 2 1 1 3 2 1 6 4 5 6 14 14 14 13 12 14 12 15 16 13 9 8 9 11 11 11 14 14 16 17 15 13 16 18 18 18 19
13 12 9 21 12 11 3 3 4 4 3 5 6 6 8 9 17 15 14 14 16 15 14 14 18 19 15 12 9 8 13 14 12 12 13 15 15 15 17 17 15 15 17 17
14 21 21 7 5 6 7 7 2 2 1 8 12 11 19 8 8 20 20 18 16 15 14 12 11 17 19 15 8 9 11 13 12 12 14 13 13 13 15 15 15 15 16 16
13 11 17 10 13 6 10 11 6 7 5 4 12 7 6 4 8 22 21 19 17 15 12 11 14 19 21 17 11 11 13 13 11 10 11 11 13 14 14 13 13 14 14 16
9 14 8 21 6 11 5 14 9 4 1 2 4 2 3 7 12 18 19 18 15 14 11 11 16 19 21 17 13 11 13 12 10 9 9 12 13 13 14 12 12 14 14 12
5 5 12 12 10 19 10 4 6 4 5 8 5 6 5 7 8 14 15 14 13 12 11 11 14 18 20 17 13 12 11 10 9 8 9 10 12 12 12 11 12 13 14 17
23 10 6 8 21 23 13 14 5 7 7 5 2 5 4 12 13 14 13 15 16 15 12 10 13 21 20 17 14 12 11 9 8 8 9 10 11 10 11 11 11 11 16 17
23 10 15 18 6 16 16 21 13 6 10 5 4 6 6 14 14 13 13 15 14 14 13 9 18 22 23 21 16 12 9 9 9 8 8 10 12 13 12 12 12 13 16 17
8 10 5 11 6 8 17 17 16 11 5 14 5 5 6 11 13 8 7 15 16 15 13 9 15 19 21 23 19 14 11 10 9 9 11 12 13 13 13 13 13 14 16 17
15 5 20 14 2 3 12 13 8 4 7 9 9 2 8 1 12 9 10 12 13 14 17 15 12 17 21 23 21 15 10 9 10 10 12 13 14 14 14 14 13 14 15 20
7 0 10 4 10 9 7 9 6 2 3 5 4 5 5 7 10 16 18 16 15 16 16 15 14 17 22 23 22 17 12 9 11 8 12 14 14 14 14 14 15 12 12 17
1 3 5 6 7 7 4 10 11 8 9 7 9 14 8 12 10 14 16 23 19 21 21 19 17 23 22 23 24 20 16 13 16 16 15 14 14 14 14 13 14 14 16 17
0 1 3 5 10 12 4 10 11 11 12 8 10 12 11 13 17 12 17 15 20 22 22 18 19 23 24 24 25 18 21 17 16 15 14 12 11 13 14 14 15 16 19 21
1 2 3 4 7 5 7 12 17 17 17 14 15 11 10 9 3 5 0 17 18 18 18 16 22 26 27 31 25 22 22 22 20 18 16 14 15 15 15 16 16 17 19 21
8 4 1 1 3 7 10 10 3 9 10 1 2 8 7 5 5 4 7 4 16 18 12 22 29 31 31 30 25 23 24 22 18 15 14 14 14 15 15 16 15 15 17 21
11 9 4 3 3 4 5 4 5 3 5 6 8 5 3 5 2 3 7 9 14 21 28 31 32 32 34 30 23 28 24 23 18 16 15 15 16 17 16 16 15 15 15 20
4 2 11 7 6 5 9 14 11 2 7 5 3 2 3 3 1 6 10 13 18 24 28 31 29 27 26 28 25 25 27 24 19 19 17 17 17 16 15 15 14 14 15 18
4 5 4 5 7 8 2 1 2 5 2 1 3 4 9 11 8 8 10 12 14 21 24 25 26 25 25 24 28 28 26 23 23 22 18 18 16 15 15 15 12 14 18 20
3 6 5 8 6 6 6 7 8 7 5 4 5 7 13 13 9 10 10 12 12 19 21 23 25 24 23 22 26 24 23 24 20 22 20 18 17 15 15 16 18 19 19 18
3 6 1 3 3 10 9 5 7 6 5 6 7 12 12 11 12 12 10 11 11 18 19 22 24 22 21 22 23 26 26 23 22 22 20 21 17 18 14 13 14 15 15 17
4 3 2 3 11 6 5 2 4 6 5 8 9 8 12 12 11 13 12 12 16 18 20 21 22 21 22 24 24 26 25 24 25 23 20 21 21 20 18 18 18 18 15 13
5 6 4 4 4 10 4 4 3 5 6 12 14 9 10 9 11 12 10 16 18 19 20 19 21 22 25 25 28 27 27 26 24 25 22 20 19 19 20 20 17 13 15 14